[{"header": {"dx": 0.06612293990616946, "dy": 0.0552356325346848, "nx": 98, "ny": 59, "la1": 35.046912555036876, "la2": 31.78801023549047, "lo1": -121.43107172385933, "lo2": -114.95102361305473, "refTime": "2026040703", "parameterCategory": 1, "parameterNumber": 2}, "data": [8.24, 8.24, 8.24, 8.24, 8.54, 8.24, 8.53, 8.22, 7.9, 8.21, 7.91, 7.96, 9.48, 9.6, 9.64, 9.11, 9.11, 8.94, 9.39, 8.94, 8.94, 8.94, 8.24, 8.94, 8.94, 9.39, 8.05, 7.15, 6.26, 6.21, 5.81, 4.11, 0.0, 0.0, 1.05, 2.16, 3.22, 3.22, 3.45, 3.68, 4.22, 4.71, 6.14, 6.87, 9.16, 10.37, 12.27, 12.89, 12.51, 11.6, 9.67, 4.15, 6.2, 8.24, 9.7, 10.46, 10.6, 11.4, 11.44, 11.44, 11.44, 11.44, 11.44, 11.4, 11.35, 11.4, 11.4, 11.0, 11.0, 10.58, 11.05, 10.16, 9.7, 9.79, 9.64, 9.68, 10.56, 11.02, 11.13, 9.33, 7.97, 6.79, 5.94, 4.85, 4.92, 4.47, 4.47, 4.92, 5.81, 7.15, 7.5, 6.61, 6.17, 6.17, 6.2, 6.2, 6.2, 4.98, 8.24, 8.24, 8.24, 8.24, 8.24, 8.24, 7.9, 7.91, 7.59, 7.59, 7.27, 7.9, 8.73, 9.2, 10.38, 9.97, 8.0, 9.33, 7.81, 5.69, 4.2, 7.6, 8.49, 8.94, 8.05, 8.85, 8.43, 7.52, 6.26, 6.71, 6.26, 2.8, 0.0, 0.0, 1.23, 2.49, 3.68, 4.47, 4.47, 4.75, 4.71, 5.46, 6.24, 6.84, 8.76, 10.43, 11.82, 12.16, 10.94, 11.28, 3.53, 5.0, 7.9, 8.73, 9.32, 10.88, 11.03, 11.4, 11.44, 12.03, 11.58, 11.57, 11.57, 11.4, 10.96, 10.96, 10.96, 11.0, 10.56, 10.58, 11.05, 10.58, 10.25, 9.79, 9.79, 9.79, 10.68, 11.02, 11.13, 9.33, 7.97, 6.79, 5.94, 4.85, 4.92, 4.47, 4.47, 4.92, 5.81, 7.15, 7.5, 6.61, 6.17, 6.17, 6.2, 6.2, 6.2, 4.98, 8.24, 8.24, 8.24, 7.95, 7.95, 7.9, 7.61, 7.6, 6.98, 6.97, 6.65, 6.31, 8.59, 9.6, 8.8, 9.13, 8.8, 9.2, 6.95, 5.46, 2.06, 2.97, 4.71, 7.2, 7.89, 7.52, 8.05, 6.71, 6.71, 6.71, 6.4, 1.4, -1.18, 0.0, 1.32, 3.6, 4.75, 5.37, 5.15, 4.94, 5.76, 5.95, 7.24, 7.79, 9.31, 10.04, 10.22, 10.55, 10.41, 4.6, 5.7, 6.87, 8.24, 9.32, 9.32, 10.46, 11.35, 11.57, 12.02, 12.02, 11.57, 11.57, 11.57, 10.96, 10.91, 10.91, 10.96, 11.0, 10.56, 10.58, 11.05, 11.05, 10.7, 10.73, 10.28, 10.28, 10.73, 11.58, 10.7, 9.39, 7.98, 7.52, 6.61, 5.36, 4.47, 4.02, 4.02, 5.36, 6.71, 8.38, 8.82, 7.94, 6.36, 5.94, 6.17, 6.2, 6.2, 5.4, 8.24, 8.24, 8.24, 8.24, 8.24, 7.61, 7.61, 6.98, 6.98, 6.35, 6.35, 6.3, 7.9, 8.03, 8.58, 9.96, 9.96, 10.0, 7.59, 4.4, 4.2, 3.11, 2.97, 3.6, 5.37, 8.05, 7.6, 6.71, 6.71, 6.64, 4.29, 0.0, -2.09, -1.58, 0.0, 3.15, 4.6, 6.14, 6.04, 6.15, 6.7, 7.38, 8.3, 8.21, 9.3, 9.53, 11.02, 8.82, 6.4, 6.11, 7.13, 8.37, 8.93, 8.93, 9.86, 10.91, 10.96, 11.57, 11.57, 11.62, 11.62, 11.62, 11.11, 10.84, 10.46, 10.6, 10.96, 10.41, 10.45, 10.49, 11.33, 11.51, 11.15, 10.28, 10.28, 10.73, 10.68, 12.52, 11.62, 8.94, 7.6, 7.6, 6.71, 5.36, 4.92, 4.47, 4.92, 6.26, 8.05, 10.14, 9.7, 8.33, 6.36, 5.94, 5.94, 6.64, 6.64, 5.94, 8.24, 8.24, 8.24, 8.24, 8.24, 7.61, 7.61, 6.98, 6.7, 6.35, 6.08, 6.0, 7.27, 7.59, 7.59, 7.59, 8.38, 8.94, 6.71, 3.98, 0.0, 0.0, 4.2, 0.0, 8.05, 8.05, 7.63, 8.05, 7.81, 6.64, 4.75, 0.0, -1.58, -1.52, 0.0, 2.28, 3.45, 4.8, 6.45, 6.56, 6.94, 7.14, 8.49, 9.32, 9.45, 9.83, 8.54, 7.47, 7.47, 7.47, 7.56, 8.54, 9.04, 9.63, 9.97, 10.52, 11.12, 11.13, 11.62, 11.62, 11.62, 11.09, 10.75, 10.0, 10.46, 10.7, 10.28, 10.28, 10.35, 10.41, 10.93, 11.4, 11.09, 10.26, 9.83, 9.83, 10.2, 11.12, 11.18, 8.49, 7.6, 7.6, 6.71, 5.81, 4.92, 5.36, 6.17, 7.94, 9.7, 9.96, 9.13, 7.89, 6.23, 6.36, 6.36, 6.61, 6.64, 5.94, 8.24, 7.95, 7.95, 7.95, 8.24, 7.61, 7.61, 6.98, 6.34, 5.7, 5.72, 5.32, 7.06, 7.59, 6.98, 6.7, 6.98, 8.22, 7.44, 4.08, 0.0, -1.09, -1.93, -2.97, 0.0, 3.8, 4.71, 6.01, 6.79, 6.79, 5.03, 1.32, 0.0, 0.0, 0.7, 1.39, 2.39, 4.6, 5.63, 5.4, 5.0, 6.44, 7.68, 9.04, 9.77, 9.54, 8.0, 7.47, 7.47, 7.9, 8.55, 8.55, 9.45, 9.45, 10.41, 10.68, 11.12, 11.18, 11.62, 11.62, 11.18, 10.62, 9.6, 9.86, 10.18, 10.7, 10.28, 10.18, 10.18, 10.78, 10.45, 10.49, 10.49, 10.93, 10.62, 8.94, 8.94, 9.39, 9.39, 8.05, 7.15, 7.06, 6.79, 6.61, 7.06, 7.47, 7.67, 9.33, 10.18, 8.05, 6.8, 6.0, 6.23, 5.81, 6.23, 6.79, 6.45, 5.94, 7.95, 7.95, 7.95, 7.95, 7.61, 7.33, 6.97, 6.71, 6.33, 5.95, 5.06, 4.66, 6.2, 7.59, 8.53, 6.7, 7.44, 7.02, 7.24, 5.86, 3.82, 0.0, -2.95, -2.7, 0.0, 1.47, 1.2, 2.33, 2.54, 2.09, 2.17, 0.0, 0.0, 1.05, 1.4, 1.36, 2.21, 3.11, 5.1, 5.52, 3.53, 4.4, 6.64, 8.3, 8.94, 7.07, 6.32, 7.13, 7.47, 8.38, 9.2, 7.68, 8.93, 10.05, 10.41, 10.47, 11.11, 11.12, 11.13, 11.13, 10.66, 10.32, 10.18, 9.86, 9.6, 9.77, 9.38, 9.8, 10.46, 10.7, 10.78, 10.58, 10.02, 11.06, 11.08, 10.18, 8.36, 7.37, 7.31, 8.01, 7.6, 7.97, 7.2, 7.2, 8.05, 9.2, 9.58, 8.03, 6.63, 4.43, 3.49, 4.11, 4.43, 5.01, 6.0, 6.79, 6.45, 5.2, 7.95, 7.95, 7.95, 7.95, 7.61, 7.33, 6.97, 6.71, 6.33, 5.69, 5.04, 3.94, 5.43, 6.76, 8.01, 7.27, 7.85, 8.44, 8.15, 8.53, 9.42, 11.45, 8.85, 3.19, 0.0, 0.0, 1.04, 0.99, 0.0, 0.0, 0.0, 0.0, 0.0, 1.22, 2.06, 2.06, 1.4, 2.23, 3.2, 4.83, 5.37, 0.0, 3.79, 5.6, 6.0, 4.22, 4.75, 6.91, 7.15, 8.18, 6.98, 8.18, 8.93, 9.6, 10.18, 10.18, 10.96, 10.96, 11.13, 11.13, 10.47, 10.32, 9.96, 8.38, 6.87, 8.49, 9.3, 9.96, 10.91, 11.11, 11.13, 11.14, 11.14, 10.7, 10.26, 9.74, 9.11, 7.98, 8.19, 9.72, 10.26, 8.01, 7.4, 7.07, 7.68, 7.9, 8.38, 6.01, 3.91, 3.22, 2.99, 2.99, 2.99, 4.43, 5.72, 6.0, 5.75, 5.6, 7.61, 7.95, 7.95, 7.95, 7.61, 7.61, 6.97, 6.97, 6.33, 5.67, 5.23, 4.05, 4.1, 3.96, 5.6, 6.08, 6.3, 7.19, 6.94, 7.24, 10.04, 12.35, 12.9, 13.01, 8.01, 3.68, 1.54, 0.0, -1.4, 0.0, 0.0, 0.0, 0.0, 0.0, 0.74, 1.65, 2.26, 1.25, 1.23, 1.84, 6.71, -0.0, 7.6, 8.05, 8.49, 6.8, 8.48, 8.0, 7.81, 7.58, 8.55, 7.64, 8.72, 9.2, 9.8, 10.18, 10.7, 10.96, 11.0, 10.68, 10.47, 10.18, 8.58, 5.95, 5.98, 8.07, 10.0, 10.08, 10.66, 11.18, 11.62, 11.62, 11.62, 11.18, 10.7, 10.25, 9.79, 9.26, 9.72, 11.09, 11.98, 8.49, 6.66, 6.88, 7.2, 7.33, 6.95, 5.59, 3.91, 3.22, 2.32, 1.23, 1.23, 1.63, 5.06, 5.58, 6.16, 5.21, 7.61, 7.61, 7.95, 7.95, 7.61, 7.61, 7.61, 6.7, 6.31, 6.31, 5.86, 5.8, 5.62, 4.1, 3.56, 3.68, 4.52, 4.52, 3.76, 2.54, 3.73, 5.08, 8.44, 10.18, 8.01, 6.45, 4.83, 1.67, 0.0, 0.0, 1.07, 0.0, 0.0, -1.49, -1.32, 0.0, 3.0, 1.52, 3.6, 6.32, 8.49, 6.01, 7.6, 8.05, 7.6, 7.6, 8.05, 8.49, 8.77, 8.63, 7.64, 7.51, 7.87, 8.34, 8.72, 9.4, 10.28, 10.52, 10.68, 10.68, 9.89, 8.03, 5.29, 4.21, 4.98, 7.27, 9.38, 8.82, 9.63, 10.62, 10.73, 11.18, 11.18, 11.18, 11.14, 10.73, 10.73, 10.28, 9.39, 10.28, 11.18, 12.05, 9.36, 7.15, 7.6, 8.38, 7.33, 5.86, 4.37, 2.66, 1.32, 0.0, 0.0, 0.0, 3.4, 5.06, 5.82, 5.58, 7.61, 7.61, 7.95, 7.95, 7.61, 7.61, 7.33, 6.96, 6.96, 6.29, 6.27, 6.9, 7.55, 6.46, 5.99, 4.71, 5.02, 4.1, 3.52, 2.91, 3.2, 3.43, 5.01, 5.83, 5.3, 4.32, 2.98, 1.03, 0.0, 0.0, 0.0, 0.0, -4.74, -2.8, -1.23, 0.0, 0.0, 0.0, 7.6, 9.39, 9.64, 8.4, 8.06, 8.49, 8.05, 7.15, 7.6, 7.6, 7.81, 6.44, 6.63, 6.87, 7.28, 7.58, 8.4, 9.33, 10.08, 10.23, 10.28, 10.18, 6.95, 3.8, 3.4, 3.45, 3.82, 4.8, 6.31, 6.95, 8.23, 9.6, 10.6, 11.0, 11.0, 10.68, 10.73, 10.73, 10.69, 10.08, 9.64, 9.24, 9.36, 10.28, 10.73, 10.26, 7.57, 7.6, 9.29, 9.2, 7.27, 7.6, 5.06, 0.0, 0.0, 0.0, 2.4, 4.75, 5.15, 5.15, 7.61, 7.61, 7.95, 8.24, 8.24, 7.6, 7.6, 7.6, 6.94, 6.94, 6.92, 6.9, 7.55, 8.75, 9.09, 8.05, 6.2, 5.2, 5.28, 5.15, 5.34, 4.52, 4.01, 3.93, 3.39, 3.3, 1.1, 0.0, 0.0, -4.11, -4.74, -7.15, -6.4, -6.26, -4.43, 0.0, 0.0, 8.94, 8.94, 9.11, 8.8, 7.51, 7.44, 8.06, 7.6, 6.26, 6.4, 5.37, 4.22, 5.37, 5.95, 6.8, 7.89, 8.41, 8.87, 9.39, 9.83, 9.83, 9.83, 7.81, 0.94, 2.44, 3.15, 0.89, -0.0, 1.69, 5.14, 6.95, 8.42, 9.36, 9.75, 10.18, 9.54, 10.08, 9.79, 10.28, 9.79, 9.6, 9.49, 9.06, 8.48, 8.9, 8.49, 10.26, 8.91, 8.02, 10.28, 11.62, 11.18, 8.24, 6.36, 6.71, 3.2, 0.0, 2.99, 4.75, 5.49, 5.95, 7.61, 7.61, 7.95, 8.24, 7.96, 7.96, 7.6, 7.6, 7.59, 7.59, 7.57, 7.55, 8.2, 9.12, 10.39, 11.06, 10.43, 9.36, 8.73, 7.87, 8.53, 9.8, 9.8, 11.69, 12.31, 10.73, 8.49, 7.15, 4.43, 2.68, -3.79, -7.15, -6.4, -5.06, -0.0, -0.0, -0.0, -0.0, 3.8, 8.0, 7.44, 8.0, 7.6, 7.6, 6.71, 6.26, -0.0, -0.0, 5.06, 7.15, 5.94, 5.58, 5.36, 4.81, 6.52, 7.06, 7.89, 9.39, 8.49, -0.0, -0.0, 0.89, 1.68, -0.0, -0.85, -0.0, 2.83, 6.18, 8.21, 9.2, 9.2, 9.36, 9.24, 9.68, 9.83, 9.83, 9.21, 8.99, 8.4, 8.3, 8.17, 8.79, 7.76, 8.19, 8.94, 8.94, 11.18, 10.73, 8.48, 6.9, 5.6, 6.07, 7.15, 6.8, 5.95, 6.13, 6.4, 6.4, 7.61, 7.61, 8.24, 8.24, 7.96, 7.96, 7.96, 7.59, 7.59, 7.59, 7.57, 7.55, 8.2, 8.83, 10.05, 11.03, 11.76, 11.88, 11.54, 11.11, 11.73, 12.85, 13.86, 14.79, 14.69, 14.3, 13.86, 12.96, 10.28, 6.68, 4.15, 4.43, 7.15, 6.71, -0.0, -0.0, -0.0, 2.69, 6.01, 8.49, 8.94, 8.49, 8.06, 7.63, 4.74, -0.0, -0.0, -0.0, 7.15, 5.06, 5.06, 3.97, 3.45, 3.2, 4.22, 2.8, 2.54, 7.81, 7.37, -0.0, -3.52, -1.39, -0.0, -0.0, -0.0, -1.14, -0.0, 5.37, 8.48, 6.18, 7.41, 8.43, 9.54, 9.83, 9.36, 9.26, 8.73, 8.37, 8.37, 8.37, 8.22, 8.4, 7.2, 8.14, 8.24, 9.26, 10.25, 8.49, 7.63, 6.52, 6.44, 6.4, 6.07, 6.71, 6.71, 7.01, 6.58, 7.15, 7.61, 7.61, 8.24, 7.96, 8.24, 8.24, 8.24, 7.96, 7.96, 8.23, 7.96, 8.22, 8.2, 8.85, 9.39, 10.37, 11.03, 11.74, 12.11, 12.49, 12.35, 13.12, 13.99, 14.65, 14.78, 15.01, 15.15, 14.74, 13.4, 10.66, 6.16, 5.4, 8.05, 7.6, 5.37, -0.0, 2.83, 2.69, 8.4, 8.05, 8.06, 7.81, 7.07, 7.2, 7.6, -0.0, -2.4, -0.0, 7.15, 0.0, 3.2, 5.06, 5.37, 6.8, 7.15, 0.0, 0.0, 4.22, 5.58, -0.0, -4.6, -2.28, -0.0, -0.0, -0.0, -0.0, -0.0, 8.49, 6.01, 4.71, 6.18, 9.06, 10.28, 10.16, 9.33, 8.72, 8.82, 8.49, 8.05, 8.05, 8.05, 8.41, 7.42, 6.79, 6.94, 8.0, 7.47, 7.52, 6.58, 6.8, 8.0, 7.89, 6.51, 6.51, 6.94, 6.07, 4.43, 4.43, 7.61, 7.89, 7.96, 8.24, 8.24, 8.24, 8.24, 7.96, 8.23, 8.23, 8.22, 8.22, 8.86, 8.85, 9.12, 9.79, 10.74, 11.7, 12.36, 12.42, 13.05, 13.42, 13.99, 14.03, 14.48, 15.36, 15.46, 15.6, 15.19, 13.85, 11.56, 7.81, 6.36, 8.94, 7.63, 2.12, 2.06, 3.8, 8.48, 8.49, 6.32, 6.8, 7.6, 8.05, 7.6, -0.0, -2.54, -3.6, -0.0, 7.6, 5.37, 6.8, 7.6, 6.8, 6.8, 7.15, 4.46, 5.36, 9.33, 5.7, -0.0, -0.0, 2.69, 7.2, 7.15, 7.6, 0.0, 8.94, -0.0, 4.96, 7.52, 8.82, 10.75, 10.15, 7.67, 6.58, 4.11, 4.54, 5.05, 5.75, 5.86, 6.51, 7.11, 7.6, 7.1, 6.58, 4.89, 6.58, 6.71, 6.79, 8.67, 6.8, 5.95, 6.08, 5.72, 3.45, 1.84, 1.84, 7.6, 7.96, 8.24, 8.24, 8.24, 8.24, 8.24, 7.96, 8.23, 8.23, 8.22, 8.59, 8.86, 8.86, 9.14, 9.14, 10.44, 11.37, 11.97, 12.96, 13.61, 13.71, 14.13, 14.36, 14.88, 15.46, 16.45, 16.89, 16.5, 16.05, 14.2, 11.84, 8.17, 9.75, 7.6, 5.37, 5.37, 8.06, 7.6, 7.37, 5.06, 3.72, 7.63, 7.15, 8.05, -0.0, -2.69, -0.0, 3.8, 3.8, 6.01, 6.01, 6.01, 7.44, 8.48, 8.94, 9.21, 9.83, 9.55, 5.75, 5.75, 4.4, 7.44, 8.06, 8.05, 6.36, 3.4, 0.0, 8.49, 8.06, 8.22, 8.58, 9.3, 7.06, 4.43, 1.52, 2.82, 5.59, 6.7, 7.07, 6.7, 7.89, 8.19, 8.38, 8.49, 6.71, 5.64, 6.71, 7.15, 8.94, 8.94, 7.6, 3.8, 3.15, 3.8, 1.96, 0.89, 0.89, 7.6, 7.96, 8.24, 8.24, 8.24, 8.24, 8.24, 7.96, 8.23, 8.23, 8.87, 8.87, 8.86, 8.86, 9.16, 9.16, 10.44, 10.75, 11.68, 12.54, 13.86, 14.26, 14.38, 14.23, 15.08, 16.05, 16.83, 17.71, 17.71, 17.18, 15.82, 13.54, 10.66, 7.26, 7.08, 8.94, 8.05, 8.06, 6.8, 6.4, 5.95, 5.37, 6.8, 7.6, 7.2, -0.0, -0.0, 2.83, 6.32, 6.32, 6.32, 6.32, 6.32, 7.44, 8.0, 9.21, 9.26, 9.33, 7.27, 6.7, 6.42, 7.87, 8.4, 8.67, 8.49, 7.15, 5.95, 2.54, 2.06, 5.21, 6.64, 6.35, 7.2, 9.13, 10.6, 5.2, 7.26, 10.55, 10.4, 10.38, 10.18, 10.08, 9.35, 8.94, 8.05, 7.6, 7.6, 6.07, 7.15, 8.05, 6.01, 5.36, 2.83, 2.97, 2.83, 2.09, 0.89, 0.89, 7.6, 7.96, 8.24, 8.24, 8.24, 8.24, 8.24, 8.24, 8.23, 8.59, 8.59, 8.87, 8.87, 8.87, 8.51, 10.11, 9.16, 9.8, 10.35, 11.99, 13.99, 15.19, 13.74, 13.77, 13.28, 15.47, 14.42, 16.03, 16.03, 14.72, 14.42, 12.78, 10.18, 6.79, 6.45, 6.23, 5.95, 6.35, 8.0, 8.4, 6.8, 7.81, 8.05, 8.05, 7.6, 6.32, 6.64, 7.81, 7.81, 7.81, 6.32, 6.32, 6.32, 8.0, 8.0, 8.05, 8.05, 7.68, 7.27, 8.03, 8.82, 9.13, 9.21, 8.05, 8.05, 7.37, 6.8, 6.08, 5.72, 8.73, 11.46, 12.92, 14.9, 15.38, 15.02, 13.86, 12.96, 12.44, 12.07, 11.62, 9.79, 8.8, 8.63, 7.81, 8.73, 8.85, 8.82, 8.05, 8.05, -5.58, -1.49, 1.4, 4.4, 2.97, 2.83, 2.4, 1.1, 1.1, 7.6, 7.96, 7.96, 7.96, 8.24, 8.24, 8.24, 8.24, 8.58, 8.59, 8.59, 8.59, 8.87, 8.87, 8.86, 9.46, 8.81, 7.6, 8.21, 10.65, 14.0, 14.51, 13.09, 12.57, 11.82, 12.49, 13.15, 13.2, 13.62, 12.79, 11.62, 10.18, 7.26, 5.02, 5.2, 5.09, 5.37, 7.2, 8.14, 8.8, 8.9, 9.39, 9.7, 9.33, 7.85, 8.8, 8.3, 8.4, 8.4, 7.44, 7.44, 7.44, 7.15, 7.15, 6.44, 6.98, 8.55, 6.64, 7.68, 8.82, 8.72, 9.21, 8.94, 8.94, 7.37, 7.37, 7.6, 7.6, 8.94, 9.63, 10.99, 13.52, 16.54, 18.5, 16.99, 15.38, 12.07, 10.47, 10.6, 10.5, 9.66, 8.91, 8.91, 7.28, 6.94, 6.94, 6.61, 6.26, -0.0, -2.99, -2.26, -0.0, 2.83, 3.32, 1.58, 1.49, 1.1, 1.1, 7.6, 7.6, 7.96, 7.96, 7.96, 7.96, 8.24, 8.24, 8.58, 8.87, 8.87, 8.59, 8.59, 8.87, 9.5, 9.16, 8.53, 7.6, 7.33, 10.18, 12.39, 12.93, 12.3, 12.27, 12.6, 13.15, 12.37, 11.72, 10.83, 9.92, 9.11, 7.87, 5.7, 4.24, 4.24, 4.47, 4.82, 6.21, 7.56, 8.46, 9.39, 9.81, 10.16, 9.89, 8.76, 9.45, 8.48, 8.72, 9.11, 8.67, 8.24, 7.07, 8.0, 7.15, 6.64, 6.01, 5.72, 6.4, 9.2, 9.11, 8.94, 8.94, 8.49, 8.33, 7.6, 6.8, -0.0, -0.0, 2.33, 4.56, 6.7, 10.63, 14.54, 17.15, 16.54, 14.84, 9.08, 8.56, 8.3, 8.64, 9.81, 9.75, 8.67, 8.02, 7.56, 5.81, 5.81, 5.26, 4.54, 1.03, -0.0, -0.0, 2.12, 2.12, 1.32, 1.32, -0.0, -0.0, 7.6, 7.6, 7.6, 7.96, 7.96, 7.96, 7.96, 8.24, 8.58, 8.58, 8.87, 8.87, 8.87, 8.87, 9.21, 9.21, 8.87, 8.23, 9.49, 11.4, 12.01, 11.03, 10.4, 11.33, 13.09, 14.03, 13.48, 12.33, 11.94, 11.91, 11.11, 9.82, 8.41, 7.48, 7.1, 6.71, 6.26, 6.71, 6.71, 7.15, 7.6, 8.05, 8.47, 8.84, 8.28, 7.21, 9.03, 9.21, 8.77, 8.24, 8.48, 8.06, 7.44, 6.32, 5.63, 4.83, 3.3, 4.6, 7.27, 8.0, 8.05, 8.05, 8.49, 8.49, 7.6, -0.0, -1.18, -1.18, -0.0, -0.0, 1.54, 6.76, 12.03, 14.4, 9.43, 8.49, 8.51, 8.43, 7.25, 7.19, 8.53, 9.05, 8.4, 8.01, 8.05, 6.26, 5.36, 5.81, 6.0, 4.87, 5.31, 2.82, 1.84, 1.55, 0.88, 0.88, -0.0, -0.0, 7.33, 7.33, 7.33, 8.24, 8.24, 8.24, 8.24, 7.96, 8.58, 8.58, 8.58, 8.87, 8.87, 9.5, 9.5, 9.5, 9.5, 9.5, 10.76, 12.3, 12.51, 11.52, 9.94, 10.59, 12.27, 13.62, 13.82, 13.93, 13.84, 13.63, 13.29, 12.46, 10.67, 9.32, 9.36, 9.39, 8.94, 8.49, 8.49, 8.49, 8.05, 8.05, 7.6, 8.02, 7.51, 6.94, 9.29, 8.94, 8.49, 8.49, 8.48, 7.81, 7.44, 4.0, 4.0, 1.84, 1.26, 3.3, 5.46, 6.28, 7.6, 8.05, 7.63, 8.49, -0.0, -1.01, -0.0, -0.0, -1.73, -2.4, -3.6, 6.32, 12.07, 10.28, 4.74, 1.95, 4.87, 6.0, 6.4, 6.4, 6.67, 7.78, 7.06, 7.03, 7.47, 6.55, 5.51, 5.7, 5.37, 4.74, 5.77, 4.74, 2.99, 1.55, 0.81, 0.73, 1.05, 1.05, 7.61, 7.61, 7.61, 7.61, 8.24, 8.24, 8.24, 8.24, 8.56, 8.87, 8.87, 8.58, 9.19, 9.19, 9.5, 9.5, 9.5, 10.13, 11.36, 11.96, 11.87, 12.17, 12.09, 11.34, 12.03, 12.95, 13.31, 13.62, 13.99, 14.16, 14.0, 13.65, 12.84, 11.57, 10.22, 9.82, 9.82, 10.28, 10.28, 9.83, 9.39, 8.94, 8.49, 8.05, 7.58, 6.68, 8.94, 8.94, 8.49, 8.06, 7.44, 7.44, 6.32, 4.71, 2.17, 2.17, -0.0, -0.0, 4.0, 6.98, 6.36, 6.36, 5.06, -2.26, -2.12, -0.78, -0.0, -0.0, -0.0, -2.4, -7.6, 9.67, 11.76, 11.18, 8.82, 5.81, 2.54, 2.95, 4.48, 4.94, 5.71, 6.53, 6.87, 6.95, 6.68, 6.06, 4.54, 5.81, 3.76, 2.64, 4.36, 2.73, 2.6, 2.8, 1.98, 1.84, 1.99, 1.99, 7.61, 7.61, 7.61, 7.61, 7.95, 7.95, 8.24, 8.24, 8.56, 8.56, 8.87, 8.87, 9.48, 9.19, 9.19, 9.5, 9.8, 10.43, 11.03, 11.33, 11.28, 12.09, 12.37, 12.54, 12.42, 12.28, 13.02, 13.12, 13.32, 13.99, 13.73, 14.0, 13.65, 12.75, 11.49, 10.6, 10.66, 10.71, 10.71, 10.71, 10.28, 9.39, 8.94, 8.94, 8.49, 8.05, 8.03, 8.05, 8.05, 8.01, 7.42, 8.72, 7.6, 6.01, 4.71, 2.83, 2.83, -0.0, 5.69, 7.81, 8.17, 7.15, 6.71, -3.47, -1.6, -0.78, -0.0, -0.0, -0.0, -0.0, 4.2, 8.15, 13.15, 12.94, 13.49, 12.37, 9.4, 6.71, 4.37, 3.51, 4.84, 6.36, 7.67, 7.8, 6.42, 3.33, 5.09, 2.32, 1.18, -0.0, 0.76, 2.82, 2.8, 3.72, 3.63, 2.76, 3.68, 3.68, 7.61, 7.61, 7.61, 7.61, 7.61, 7.95, 7.95, 8.24, 8.56, 8.56, 8.56, 8.87, 9.17, 9.48, 9.48, 9.48, 10.12, 10.72, 10.99, 11.28, 11.28, 11.8, 12.27, 12.54, 12.95, 12.79, 12.62, 12.83, 12.83, 13.09, 13.26, 13.41, 13.54, 12.64, 11.86, 10.94, 10.58, 10.58, 10.66, 10.66, 10.27, 10.26, 9.83, 9.39, 8.94, 8.94, 8.94, 8.94, 8.49, 8.49, 8.47, 7.57, 8.33, 8.24, 7.44, 4.96, 6.01, 5.69, 5.37, 8.05, 8.49, 8.85, 7.21, -0.0, -0.96, -0.0, -0.0, -0.0, -0.0, 3.6, 7.44, 9.58, 11.28, 12.96, 13.67, 13.23, 13.33, 12.01, 7.52, 3.35, 3.07, 5.71, 7.77, 7.67, 5.59, 6.44, 4.56, 1.25, -0.0, -0.0, -0.0, 2.9, 3.91, 4.07, 4.46, 5.06, 5.03, 5.03, 7.33, 7.33, 7.61, 7.61, 7.61, 8.24, 8.24, 8.24, 8.85, 8.85, 8.56, 9.17, 9.17, 9.17, 9.48, 9.77, 10.09, 10.4, 10.94, 10.94, 10.94, 11.8, 11.8, 12.27, 12.7, 12.79, 13.02, 12.83, 12.83, 12.6, 12.78, 12.94, 12.51, 12.18, 11.84, 10.94, 10.91, 10.91, 11.02, 10.58, 10.66, 10.22, 9.82, 9.82, 9.39, 9.39, 9.39, 9.39, 9.39, 8.49, 8.49, 8.05, 6.71, 5.81, 7.45, 7.63, 8.48, 7.63, 5.37, 5.06, 8.49, 8.49, 9.39, 3.72, -0.0, -0.0, -0.0, 2.54, 3.4, 8.05, 8.48, 9.2, 10.0, 11.71, 12.03, 11.37, 11.95, 11.75, 8.9, 3.68, 1.52, 4.39, 6.95, 7.19, 4.02, 7.15, 2.82, 1.25, -0.0, -0.0, -0.0, 2.2, 5.3, 5.72, 5.09, 6.52, 5.69, 5.69, 7.61, 7.61, 7.61, 7.61, 7.61, 7.93, 7.93, 8.24, 8.24, 8.85, 8.85, 9.13, 9.46, 9.17, 9.48, 9.77, 10.36, 10.69, 10.69, 11.23, 11.23, 11.44, 11.8, 12.27, 12.54, 12.56, 12.79, 12.62, 12.83, 13.02, 12.78, 12.94, 12.51, 12.18, 11.84, 11.37, 10.94, 10.94, 11.04, 11.04, 10.58, 10.22, 9.82, 9.83, 9.83, 9.83, 10.28, 10.28, 9.82, 9.37, 8.94, 8.05, 7.15, 6.26, 5.36, 7.15, 8.05, 8.05, 5.37, 3.4, 7.6, 8.38, 8.87, 5.37, -0.0, 1.62, 2.17, 7.2, 5.69, 7.6, 9.11, 9.89, 9.77, 9.86, 10.4, 11.21, 11.49, 10.28, 6.71, 3.6, 0.76, 1.61, 3.76, 4.66, 2.99, 6.26, -0.0, -0.0, 1.1, 2.49, 1.99, 3.49, 4.74, 6.35, 6.35, 7.96, 7.07, 7.07, 7.61, 7.61, 7.61, 7.61, 7.61, 7.93, 7.93, 7.93, 8.24, 8.53, 8.85, 9.13, 9.13, 9.46, 9.72, 10.06, 10.36, 10.36, 10.65, 10.65, 11.23, 11.23, 11.72, 11.72, 12.16, 12.16, 12.03, 12.28, 12.83, 13.02, 12.78, 12.78, 12.94, 12.64, 11.74, 11.4, 11.37, 11.37, 11.48, 11.04, 11.04, 10.66, 9.77, 10.24, 9.83, 8.86, 10.28, 10.26, 9.76, 9.82, 8.92, 8.47, 7.57, 6.68, 5.78, 4.88, 7.15, 7.6, 6.8, 6.8, 7.6, 7.63, 7.89, 3.6, 1.47, 2.46, 3.52, 4.46, 5.37, 2.69, 7.81, 10.41, 11.44, 10.8, 9.17, 8.76, 9.69, 7.96, 5.94, 3.95, 1.19, 0.0, 0.54, 0.5, 1.08, 3.79, 5.81, 4.43, 4.74, 5.58, 4.11, 4.11, 5.75, 5.95, 7.28, 7.81, 7.6, 7.6, 7.61, 7.61, 7.61, 7.61, 7.61, 7.93, 7.93, 7.93, 7.93, 8.53, 8.53, 9.13, 9.13, 9.46, 9.72, 10.06, 10.3, 10.65, 10.65, 10.65, 10.88, 11.23, 11.16, 11.35, 11.62, 11.62, 11.88, 11.88, 12.11, 12.41, 13.02, 12.78, 12.94, 12.51, 12.18, 11.71, 11.4, 11.4, 11.37, 11.04, 11.04, 10.66, 10.22, 9.32, 8.03, 10.28, 11.18, 9.32, 7.4, 7.48, 7.45, 7.45, 7.5, 7.04, 6.14, 5.67, 5.2, 5.2, 7.15, 7.15, 6.94, 7.06, 7.6, 2.06, 2.06, 1.95, 1.32, 3.8, 6.79, 4.71, 5.9, 9.6, 11.62, 12.52, 11.99, 11.95, 10.54, 8.69, 5.58, 6.2, 4.41, 2.41, 0.0, 0.0, 1.8, 4.57, 5.36, 6.26, 6.51, 6.71, 7.15, 4.84, 6.23, 6.99, 7.6, 8.0, 7.35, 7.35, 7.61, 7.61, 7.61, 7.61, 7.61, 8.22, 8.22, 8.22, 8.22, 8.82, 8.82, 8.53, 9.13, 9.13, 9.72, 10.06, 10.3, 10.3, 10.3, 10.3, 11.16, 11.16, 11.16, 11.44, 11.62, 11.24, 11.5, 11.75, 11.92, 12.41, 12.83, 13.09, 12.78, 12.51, 12.04, 11.71, 11.28, 11.4, 10.94, 11.04, 11.04, 10.6, 10.58, 9.67, 8.77, 10.35, 11.33, 8.79, 6.6, 5.33, 5.32, 6.21, 6.21, 6.11, 5.67, 5.44, 5.44, 5.44, 4.77, 6.07, 6.51, 7.37, 7.07, 4.71, 6.01, 3.6, -0.0, 3.4, 7.37, 8.24, 5.36, 6.64, 9.54, 12.2, 14.75, 13.99, 12.51, 11.39, 9.97, 8.72, 7.92, 5.16, 3.6, 4.57, 6.2, 7.15, 7.13, 8.02, 6.26, 7.6, 6.71, 6.79, 6.14, 7.31, 7.28, 7.56, 7.06, 7.06, 7.32, 7.32, 7.32, 7.32, 7.6, 7.9, 8.22, 8.22, 8.22, 8.5, 8.82, 8.82, 8.82, 9.13, 9.72, 9.72, 10.06, 10.59, 10.59, 10.59, 10.59, 10.8, 10.8, 11.07, 11.07, 11.34, 10.96, 10.83, 11.99, 11.31, 12.33, 12.41, 12.6, 12.3, 12.04, 11.74, 11.71, 11.28, 11.37, 10.94, 11.04, 11.04, 10.58, 10.13, 9.57, 10.29, 11.24, 10.66, 8.92, 7.57, 7.57, 7.56, 7.11, 7.1, 7.08, 5.59, 5.34, 5.34, 4.93, 4.6, 6.51, 8.05, 6.01, 6.7, 7.07, 8.06, 7.6, 0.0, 6.7, 7.89, 6.94, -0.0, -0.0, 11.18, 14.75, 15.93, 12.79, 10.73, 10.48, 11.77, 11.66, 11.15, 10.28, 8.05, 8.91, 9.75, 10.22, 10.14, 8.91, 7.08, 7.15, 7.15, 6.26, 7.6, 7.89, 7.33, 7.33, 7.33, 7.32, 7.32, 7.6, 7.6, 7.6, 7.9, 7.9, 8.22, 8.22, 8.5, 8.5, 8.82, 8.82, 9.08, 9.66, 10.01, 10.01, 10.01, 10.23, 10.23, 10.59, 10.8, 11.07, 11.07, 11.07, 10.96, 10.96, 10.96, 10.83, 11.99, 10.4, 11.12, 11.21, 11.81, 12.04, 11.61, 11.71, 11.28, 11.4, 11.37, 11.37, 10.94, 10.58, 10.58, 10.04, 10.47, 11.37, 11.48, 11.11, 10.2, 9.29, 8.84, 8.82, 8.33, 7.55, 6.64, 6.61, 5.81, 5.51, 5.16, 5.16, 7.2, 8.48, 7.21, 6.7, 7.63, 7.6, 7.6, 7.07, 8.67, 8.33, 4.71, 6.64, 10.38, 14.36, 17.27, 13.23, 8.59, 8.58, 11.35, 12.93, 13.86, 14.21, 14.21, 9.77, 10.71, 11.16, 10.67, 9.58, 6.88, 6.51, 6.71, 6.71, 6.71, 7.6, 8.45, 7.57, 7.57, 7.6, 7.6, 7.6, 7.6, 7.6, 7.9, 7.9, 8.22, 8.22, 8.22, 8.5, 8.82, 8.82, 9.08, 9.42, 9.66, 9.66, 10.01, 10.23, 10.23, 10.51, 10.51, 10.51, 10.7, 10.7, 10.79, 10.79, 10.96, 11.5, 11.08, 10.4, 10.21, 10.42, 10.91, 11.56, 11.56, 11.28, 11.28, 11.28, 11.37, 11.37, 11.37, 10.94, 10.47, 10.47, 10.47, 10.94, 11.48, 11.02, 10.57, 10.54, 9.64, 9.18, 8.71, 7.94, 7.45, 7.11, 6.64, 6.14, 5.7, 8.05, 8.05, 7.2, 7.2, 6.4, 6.8, 6.8, 7.15, 8.05, 8.49, 7.81, 8.18, 9.83, 10.0, 13.75, 17.0, 15.18, 12.45, 11.28, 12.03, 12.96, 13.86, 14.3, 13.86, 13.84, 11.18, 10.28, 8.43, 8.19, 6.28, 6.02, 6.58, 5.81, 5.73, 6.21, 7.6, 7.6, 7.6, 7.6, 7.6, 7.6, 7.6, 7.6, 7.9, 7.9, 7.9, 8.22, 8.22, 8.5, 8.5, 8.82, 9.08, 9.08, 9.66, 9.94, 9.94, 10.51, 10.51, 10.51, 10.51, 10.51, 10.51, 10.79, 10.79, 10.79, 10.96, 10.96, 11.36, 10.91, 10.71, 10.62, 10.91, 10.91, 11.08, 11.08, 11.24, 10.81, 10.81, 11.37, 11.37, 10.94, 10.91, 10.94, 10.94, 11.37, 11.37, 10.91, 10.88, 10.41, 10.37, 9.89, 8.97, 8.55, 8.24, 7.33, 6.98, 6.64, 5.58, 5.51, 8.49, 8.05, 7.2, 7.2, 7.2, 6.8, 7.6, 7.6, 8.05, 7.6, 8.94, 10.28, 11.95, 13.72, 15.45, 15.57, 15.27, 14.42, 14.99, 14.3, 13.69, 13.56, 13.56, 13.25, 9.37, 7.58, 7.45, 6.94, 6.55, 6.65, 6.26, 5.81, 5.75, 5.59, 5.94, 7.57, 7.57, 7.6, 7.6, 7.6, 7.6, 7.6, 7.6, 7.9, 7.9, 7.9, 8.22, 8.5, 8.5, 8.5, 8.78, 9.37, 9.37, 9.94, 9.94, 9.94, 10.51, 10.51, 10.51, 10.51, 10.41, 10.41, 10.41, 10.41, 10.58, 10.83, 10.83, 11.08, 10.91, 11.12, 10.71, 10.91, 10.49, 10.66, 10.66, 10.81, 10.81, 10.81, 10.94, 10.91, 10.58, 11.04, 11.37, 11.4, 11.24, 11.2, 10.72, 10.24, 10.18, 9.68, 9.18, 8.76, 8.48, 7.98, 7.71, 7.21, 5.75, 5.21, 5.81, 8.49, 6.8, 7.2, 8.48, 7.63, 8.49, 8.05, 7.6, 7.6, 7.6, 10.28, 12.04, 13.86, 13.83, 13.83, 14.99, 16.36, 16.54, 15.58, 13.12, 11.52, 10.75, 10.6, 10.28, 9.79, 7.98, 7.54, 8.0, 8.49, 8.05, 7.08, 6.36, 5.44, 5.94, 6.58, 6.58, 7.6, 7.6, 7.6, 7.6, 7.6, 7.6, 7.9, 7.9, 7.9, 8.22, 8.5, 8.5, 8.78, 8.78, 9.37, 9.37, 9.59, 9.94, 9.94, 10.15, 10.15, 10.15, 10.41, 10.41, 10.41, 10.41, 10.41, 10.68, 10.68, 10.68, 10.68, 10.68, 10.91, 10.91, 10.71, 10.91, 10.49, 10.6, 10.6, 10.34, 10.34, 10.34, 10.01, 11.46, 10.21, 11.04, 11.71, 11.56, 11.08, 10.6, 10.05, 9.96, 9.45, 9.18, 8.76, 8.25, 8.14, 7.98, 6.4, 5.58, 5.75, 5.21, 8.49, 7.6, 8.05, 8.94, 8.05, 8.05, 8.05, 6.8, 6.4, 7.15, 8.91, 11.28, 13.83, 13.32, 12.09, 13.01, 15.13, 15.96, 14.75, 12.14, 10.89, 10.08, 9.77, 9.39, 9.39, 8.49, 8.94, 9.39, 9.39, 8.94, 7.97, 6.88, 6.4, 6.0, 6.4, 6.36, 7.3, 7.3, 7.3, 7.3, 7.6, 7.6, 7.9, 7.9, 7.9, 7.9, 8.5, 8.78, 8.78, 8.78, 9.02, 9.37, 9.37, 9.59, 9.94, 9.94, 10.15, 10.41, 10.41, 10.41, 10.41, 10.41, 10.41, 10.68, 10.3, 10.3, 10.55, 10.55, 10.68, 10.91, 10.91, 10.71, 10.91, 10.42, 10.42, 10.18, 10.18, 9.86, 9.39, 11.0, 10.2, 11.48, 11.99, 11.81, 11.33, 10.75, 10.24, 9.96, 9.55, 9.04, 8.52, 8.25, 8.14, 7.73, 6.64, 5.69, 5.21, 4.98, 8.49, 7.15, 7.6, 8.94, 8.49, 7.6, 7.6, 6.8, 6.4, 7.6, 8.94, 10.28, 14.3, 14.28, 12.04, 11.99, 13.74, 14.79, 12.92, 12.09, 11.49, 10.69, 9.83, 9.39, 8.94, 8.94, 9.39, 9.83, 9.39, 8.87, 8.6, 8.17, 7.2, 6.21, 6.21, 6.4, 6.98, 6.98, 7.3, 7.3, 7.3, 7.6, 7.9, 7.9, 7.9, 7.9, 8.19, 8.78, 8.78, 8.78, 8.78, 9.02, 9.37, 9.37, 9.59, 9.94, 10.23, 10.41, 10.41, 10.41, 10.41, 10.41, 10.41, 10.3, 10.3, 10.3, 10.55, 10.55, 10.55, 10.8, 10.4, 10.4, 10.71, 10.62, 10.42, 10.42, 10.0, 9.7, 9.21, 8.63, 11.03, 11.71, 12.3, 10.91, 10.52, 10.0, 9.83, 9.72, 9.32, 8.8, 8.52, 8.4, 7.85, 6.9, 6.64, 5.69, 5.09, 5.21, 5.4, 8.06, 8.05, 8.49, 7.21, 7.63, 6.8, 7.21, 7.6, 7.15, 4.0, 8.8, 12.52, 14.06, 13.75, 12.39, 11.45, 11.99, 12.04, 12.24, 12.48, 11.62, 10.68, 9.34, 8.8, 8.77, 9.32, 9.33, 9.39, 8.94, 9.29, 8.6, 7.6, 6.32, 5.95, 6.21, 6.98, 6.98, 7.3, 7.3, 7.3, 7.3, 7.6, 7.9, 7.9, 8.19, 8.19, 8.45, 8.78, 8.78, 8.78, 9.02, 9.02, 9.37, 9.59, 9.86, 10.23, 10.23, 10.23, 10.41, 10.41, 10.41, 10.04, 10.3, 10.3, 10.3, 9.92, 10.16, 10.16, 10.16, 10.4, 10.4, 10.4, 10.62, 10.62, 10.21, 10.42, 9.92, 9.42, 9.07, 9.35, 12.56, 11.62, 9.71, 8.8, 9.2, 9.07, 9.07, 9.2, 8.8, 8.66, 8.11, 7.85, 6.9, 6.32, 5.72, 5.46, 4.46, 7.07, 7.2, 7.2, 8.06, 7.63, 8.48, 6.8, 7.6, 8.05, 7.6, 6.32, 5.21, 9.33, 12.07, 14.16, 14.3, 10.02, 9.55, 9.86, 11.46, 12.07, 11.84, 10.78, 9.42, 8.73, 8.73, 8.77, 8.77, 8.73, 8.87, 8.94, 8.49, 7.63, 6.9, 6.9, 6.9, 6.98, 6.98, 6.98, 7.3, 7.3, 7.3, 7.6, 7.9, 8.19, 8.19, 8.19, 8.19, 8.45, 8.78, 8.78, 8.78, 9.02, 9.02, 9.37, 9.86, 9.86, 9.86, 9.86, 9.86, 9.86, 10.04, 10.04, 10.3, 10.13, 10.13, 9.76, 9.76, 10.16, 10.16, 10.16, 10.4, 10.4, 10.4, 10.0, 10.21, 10.21, 10.11, 9.71, 9.88, 10.55, 11.6, 11.12, 9.63, 8.52, 8.27, 8.66, 8.38, 8.38, 8.38, 8.0, 8.11, 7.54, 6.96, 6.7, 5.72, 5.09, 4.43, 4.89, 7.44, 8.06, 8.06, 8.49, 7.63, 7.6, 7.63, 8.05, 8.05, 6.64, 3.8, 3.82, 6.95, 11.21, 14.31, 14.47, 12.52, 10.52, 10.0, 10.58, 10.52, 10.37, 10.02, 10.12, 10.12, 10.56, 10.56, 10.12, 9.79, 9.32, 8.94, 7.89, 7.89, 7.89, 7.89, 6.98, 6.98, 6.98, 7.3, 7.3, 7.3, 7.3, 8.19, 8.19, 8.19, 8.19, 8.19, 8.45, 8.45, 8.78, 8.78, 9.02, 9.02, 9.3, 9.86, 9.86, 9.86, 9.86, 9.86, 9.86, 9.86, 10.04, 10.3, 10.13, 10.13, 9.76, 9.76, 9.76, 10.02, 10.02, 10.02, 10.02, 10.27, 9.88, 9.88, 10.0, 10.0, 9.88, 10.27, 10.55, 11.31, 11.33, 10.54, 9.96, 9.45, 8.66, 8.66, 8.27, 7.81, 7.44, 7.44, 6.87, 6.96, 6.35, 5.72, 5.43, 4.74, 4.43, 7.44, 8.06, 8.49, 8.49, 8.49, 6.8, 3.6, 7.2, 8.49, 6.32, 6.14, 4.6, 4.99, 8.58, 13.27, 16.09, 15.96, 14.51, 13.95, 14.7, 14.11, 13.4, 11.89, 11.06, 10.69, 10.68, 11.18, 11.62, 11.62, 11.18, 9.39, 8.87, 8.33, 8.33, 8.33, 6.98, 6.98, 6.98, 7.3, 7.3, 7.3, 7.59, 7.59, 7.86, 8.19, 8.19, 8.19, 8.19, 8.45, 8.45, 8.78, 8.78, 9.3, 9.3, 9.86, 9.86, 9.86, 9.86, 9.86, 9.86, 9.86, 9.86, 9.86, 10.13, 10.13, 9.76, 9.76, 9.76, 9.76, 10.02, 10.02, 10.02, 9.63, 9.88, 9.88, 9.88, 9.88, 10.4, 10.4, 10.4, 10.8, 11.03, 11.25, 10.75, 10.65, 10.13, 9.05, 8.66, 8.11, 7.23, 6.87, 6.87, 6.63, 6.28, 5.72, 5.06, 5.06, 4.74, 4.74, 8.48, 8.49, 8.94, 7.2, 6.01, 3.6, 8.94, 7.63, 6.32, 6.14, 7.27, 8.23, 10.58, 11.62, 14.18, 14.58, 14.22, 15.74, 17.44, 16.47, 14.31, 12.66, 11.89, 11.15, 11.18, 11.18, 11.62, 11.62, 11.18, 9.83, 9.83, 9.39, 9.39, 9.39, 6.98, 6.98, 6.98, 7.3, 7.59, 7.59, 7.59, 7.59, 7.86, 7.86, 7.86, 8.19, 8.19, 8.45, 8.45, 8.45, 9.08, 9.3, 9.3, 9.3, 9.5, 9.86, 9.86, 9.86, 9.86, 9.86, 9.86, 9.86, 10.13, 10.13, 9.76, 9.76, 9.76, 9.76, 9.76, 10.02, 10.02, 9.63, 9.63, 9.63, 9.63, 9.63, 10.02, 10.27, 10.4, 10.4, 10.8, 10.8, 10.92, 10.8, 10.26, 9.7, 9.45, 8.88, 8.3, 7.23, 6.57, 6.31, 6.28, 5.68, 5.38, 5.06, 5.06, 5.15, 6.0, 8.94, 8.94, 8.05, 8.05, 7.63, 8.49, 8.06, 8.48, 8.4, 9.54, 10.28, 10.62, 11.57, 12.2, 11.2, 12.22, 16.25, 18.2, 17.53, 15.84, 13.78, 12.79, 12.05, 11.62, 11.18, 11.09, 11.09, 11.09, 10.66, 10.23, 9.83, 9.83, 9.83, 6.69, 6.69, 6.69, 7.59, 7.59, 7.59, 7.59, 7.59, 7.59, 7.86, 7.86, 7.86, 8.19, 8.19, 8.45, 8.45, 8.73, 9.08, 9.3, 9.3, 9.3, 9.5, 9.5, 9.86, 9.86, 9.86, 9.86, 9.86, 10.13, 9.76, 9.76, 9.76, 9.76, 9.76, 9.76, 9.76, 9.76, 9.63, 9.63, 9.63, 9.63, 9.63, 10.02, 10.02, 10.27, 10.27, 10.8, 10.67, 10.67, 10.52, 10.13, 10.26, 9.7, 9.52, 7.95, 7.59, 6.98, 6.31, 5.69, 5.68, 5.37, 5.06, 4.36, 4.74, 5.21, 8.48, 8.94, 8.94, 8.94, 7.63, 7.07, 6.01, 8.48, 9.39, 9.83, 10.28, 10.73, 11.57, 10.79, 8.75, 10.03, 15.01, 18.48, 17.22, 16.02, 14.13, 13.33, 12.96, 12.07, 9.76, 9.7, 10.14, 10.32, 10.47, 10.56, 10.22, 10.22, 10.22, 6.69, 6.69, 6.97, 6.97, 7.27, 7.27, 7.59, 7.59, 7.59, 7.86, 7.86, 7.86, 7.86, 8.19, 8.45, 8.73, 8.73, 8.73, 9.3, 9.3, 9.3, 9.3, 9.5, 9.5, 9.86, 9.86, 9.86, 10.13, 9.76, 9.76, 9.76, 9.76, 9.76, 9.76, 9.76, 9.76, 9.76, 9.38, 9.63, 9.63, 9.63, 9.63, 10.02, 10.02, 10.02, 10.27, 10.67, 10.67, 10.67, 10.52, 9.97, 9.97, 9.78, 9.52, 8.93, 7.95, 7.33, 6.98, 6.01, 5.35, 5.37, 4.71, 4.65, 4.29, 4.11, 7.07, 8.06, 8.94, 8.94, 8.49, 8.94, 8.0, 8.91, 9.54, 9.83, 10.28, 10.28, 10.32, 9.48, 8.94, 9.67, 13.15, 15.59, 15.58, 15.99, 15.04, 12.88, 12.07, 12.07, 10.28, 9.7, 8.91, 8.4, 8.79, 9.13, 9.6, 9.6, 9.6, 6.97, 6.97, 6.97, 6.97, 7.27, 7.27, 7.27, 7.27, 7.59, 7.59, 7.86, 7.86, 7.86, 7.86, 8.49, 8.73, 8.73, 8.73, 8.73, 8.94, 9.3, 9.3, 9.3, 9.5, 9.76, 9.76, 9.76, 9.76, 9.76, 9.76, 9.76, 9.76, 9.76, 9.76, 9.76, 9.76, 9.76, 9.76, 9.38, 9.63, 9.63, 9.63, 10.02, 10.02, 10.02, 10.27, 10.67, 10.67, 10.52, 10.52, 9.97, 9.97, 9.78, 9.19, 8.93, 8.32, 7.95, 7.33, 6.68, 6.01, 5.3, 4.56, 4.65, 4.29, 3.47, 5.37, 7.2, 8.49, 8.49, 8.94, 9.39, 9.83, 9.33, 9.75, 10.28, 10.28, 10.28, 9.54, 9.2, 9.32, 10.0, 10.4, 10.73, 13.65, 15.54, 15.83, 10.73, 10.23, 10.73, 11.18, 9.39, 9.74, 8.4, 8.0, 8.0, 8.22, 8.22, 8.22, 6.97, 6.97, 6.97, 6.97, 6.97, 7.27, 7.27, 7.27, 7.27, 7.59, 7.86, 7.86, 7.86, 8.15, 8.15, 8.73, 8.73, 8.73, 8.73, 8.73, 8.94, 9.3, 9.3, 9.58, 9.76, 9.76, 9.76, 9.76, 9.76, 9.76, 9.76, 9.76, 9.76, 9.76, 9.76, 9.76, 9.76, 9.38, 9.38, 9.38, 9.63, 9.63, 9.86, 9.48, 9.86, 10.27, 10.13, 10.52, 10.52, 10.52, 10.35, 9.78, 9.78, 9.19, 8.58, 8.55, 8.32, 7.68, 7.02, 6.32, 5.59, 4.83, 4.42, 4.16, 3.72, 4.83, 6.32, 7.63, 8.49, 8.49, 9.39, 9.83, 10.28, 9.97, 9.75, 9.83, 9.83, 9.83, 9.54, 9.55, 9.86, 9.7, 9.86, 11.79, 15.91, 13.86, 10.26, 9.33, 9.7, 10.28, 10.24, 9.39, 8.73, 8.22, 7.44, 7.44, 7.44, 7.44, 6.97, 6.97, 6.97, 6.97, 6.97, 7.27, 7.27, 7.27, 7.27, 7.59, 7.59, 7.86, 8.15, 8.15, 8.15, 8.15, 8.38, 8.73, 8.73, 8.73, 8.94, 8.94, 9.21, 9.58, 9.58, 9.76, 9.76, 9.76, 9.76, 9.76, 9.76, 9.76, 9.76, 9.76, 9.76, 9.76, 9.21, 9.21, 9.21, 9.38, 9.38, 10.02, 9.86, 9.48, 9.48, 10.13, 10.13, 10.13, 10.13, 9.97, 9.97, 9.78, 9.78, 9.19, 8.58, 8.58, 7.96, 7.95, 7.33, 6.68, 6.32, 6.01, 4.95, 4.42, 3.72, 3.49, 5.69, 6.32, 6.7, 8.05, 8.49, 9.39, 9.83, 9.2, 8.55, 9.33, 8.91, 9.39, 9.83, 9.97, 10.52, 9.6, 10.68, 12.35, 16.93, 14.69, 11.6, 9.34, 9.26, 9.26, 10.28, 9.39, 9.35, 8.6, 7.67, 6.32, 6.32, 6.32, 6.97, 6.97, 6.97, 6.97, 6.97, 6.97, 7.27, 7.27, 7.27, 7.27, 7.59, 8.15, 8.15, 8.15, 8.15, 8.15, 8.15, 8.38, 8.73, 8.73, 8.73, 8.94, 9.21, 9.21, 9.58, 9.58, 9.76, 9.76, 9.76, 9.76, 9.76, 9.58, 9.58, 9.58, 9.21, 9.21, 9.21, 9.21, 9.21, 9.21, 9.21, 9.48, 9.48, 9.48, 9.48, 10.13, 10.13, 10.13, 9.97, 9.97, 9.97, 9.78, 9.78, 9.19, 8.58, 8.58, 7.96, 7.61, 7.33, 7.33, 6.68, 6.39, 5.69, 4.95, 4.47, 3.49, 6.01, 6.7, 7.2, 7.2, 6.01, 8.0, 8.91, 7.44, 7.27, 6.95, 7.81, 9.39, 9.83, 9.83, 10.28, 10.52, 10.75, 16.07, 17.38, 15.58, 12.5, 10.28, 8.87, 8.3, 9.11, 9.28, 9.26, 9.16, 8.91, 6.64, 6.64, 6.64, 6.97, 6.97, 6.97, 6.97, 6.97, 6.97, 7.27, 7.27, 7.27, 7.27, 7.55, 7.55, 8.15, 8.15, 8.15, 8.15, 8.15, 8.38, 8.38, 8.73, 8.73, 8.73, 9.21, 9.21, 9.21, 9.21, 9.58, 9.76, 9.76, 9.58, 9.58, 9.58, 9.21, 9.21, 9.21, 9.21, 9.21, 9.21, 9.21, 9.21, 9.48, 9.48, 9.48, 9.48, 9.48, 9.48, 10.13, 10.13, 9.97, 9.97, 9.58, 9.78, 9.19, 9.19, 8.58, 8.23, 8.23, 7.61, 7.27, 6.98, 6.68, 6.35, 6.06, 5.69, 5.06, 4.43, 4.65, 5.2, 8.06, 7.6, 6.32, 5.21, 6.64, 8.0, 8.49, 6.32, 8.4, 9.33, 9.83, 10.28, 10.28, 10.73, 14.71, 15.65, 16.99, 15.2, 12.96, 11.18, 9.34, 8.0, 8.4, 8.25, 9.33, 8.99, 8.91, 6.32, 6.32, 6.32, 6.67, 6.67, 6.67, 6.97, 6.97, 6.97, 6.97, 7.27, 7.27, 7.55, 7.55, 7.55, 7.55, 7.81, 7.81, 8.15, 8.15, 8.15, 8.38, 8.38, 8.73, 8.73, 9.01, 9.21, 9.21, 9.21, 9.21, 9.21, 9.58, 9.58, 9.21, 9.21, 9.21, 9.21, 9.21, 9.21, 9.21, 9.21, 9.48, 9.48, 9.48, 9.48, 9.48, 9.48, 9.48, 9.48, 9.74, 9.74, 9.58, 9.58, 9.4, 9.4, 9.19, 9.19, 8.58, 8.23, 8.23, 7.61, 7.27, 6.92, 6.98, 6.35, 6.35, 6.06, 5.77, 5.06, 4.89, 5.2, 7.6, 8.48, 7.81, 7.81, 9.33, 9.83, 8.8, 8.4, 8.94, 8.4, 8.55, 9.75, 9.75, 10.73, 14.3, 17.4, 15.12, 13.39, 11.62, 10.73, 9.46, 7.33, 7.51, 7.85, 8.67, 8.3, 8.0, 6.32, 6.32, 6.32, 6.35, 6.35, 6.67, 6.67, 6.67, 6.97, 6.97, 6.97, 7.55, 7.55, 7.55, 7.55, 7.55, 7.55, 7.81, 7.81, 8.15, 8.15, 8.15, 8.38, 8.38, 8.73, 8.73, 9.01, 9.21, 9.21, 9.21, 9.21, 9.21, 9.21, 9.21, 9.21, 9.21, 9.21, 9.21, 9.21, 9.21, 9.48, 9.48, 9.48, 9.48, 9.48, 9.48, 9.48, 9.48, 9.48, 9.74, 9.74, 9.58, 9.58, 9.4, 9.4, 8.82, 8.58, 8.58, 8.23, 8.23, 7.61, 7.61, 7.27, 6.65, 6.98, 6.35, 6.35, 6.06, 5.77, 4.74, 4.98, 5.37, 7.44, 8.91, 8.91, 9.33, 9.83, 9.33, 8.8, 9.83, 8.4, 6.95, 7.27, 7.27, 9.6, 11.95, 17.43, 13.41, 12.52, 10.28, 9.83, 9.74, 8.43, 6.64, 7.44, 8.0, 8.17, 8.0, 7.51, 7.51, 7.51, 6.35, 6.35, 6.35, 6.67, 6.67, 6.67, 6.67, 6.95, 7.27, 7.55, 7.55, 7.55, 7.55, 7.55, 7.55, 7.81, 7.81, 8.15, 8.15, 8.38, 8.38, 8.38, 8.73, 9.01, 9.01, 9.21, 9.21, 9.21, 9.21, 9.21, 9.21, 9.21, 9.21, 9.21, 9.21, 9.21, 9.21, 9.1, 9.1, 9.1, 9.1, 9.1, 9.1, 9.1, 9.1, 9.35, 9.35, 9.35, 9.58, 9.58, 9.02, 8.82, 8.82, 8.58, 8.23, 8.23, 8.23, 7.61, 7.61, 7.27, 7.27, 6.98, 6.98, 6.35, 6.01, 5.69, 5.06, 5.15, 5.15, 7.44, 7.81, 8.4, 8.4, 9.39, 9.39, 9.83, 8.8, 6.64, 4.4, 3.25, 5.7, 7.59, 9.96, 14.9, 17.4, 12.52, 11.18, 9.83, 9.83, 9.7, 6.64, 6.32, 7.58, 7.76, 7.76, 7.15, 7.15, 7.15, 6.35, 6.35, 6.35, 6.35, 6.67, 6.67, 6.95, 6.95, 6.95, 7.55, 7.55, 7.55, 7.55, 7.55, 7.55, 7.55, 7.81, 8.15, 8.15, 8.15, 8.38, 8.38, 8.38, 8.38, 9.01, 9.01, 9.01, 9.21, 9.21, 9.21, 9.21, 9.21, 9.21, 9.21, 9.21, 9.21, 9.1, 9.1, 9.1, 9.1, 9.1, 9.1, 8.93, 8.93, 9.2, 9.35, 9.35, 9.35, 9.2, 9.2, 9.02, 8.82, 8.82, 8.23, 8.23, 8.23, 8.23, 7.61, 7.61, 7.27, 7.27, 6.65, 6.65, 6.68, 6.35, 5.69, 5.69, 4.65, 4.65, 5.63, 5.63, 5.63, 4.0, 4.0, 4.0, 4.2, 6.64, 6.64, 4.2, 6.95, 8.55, 8.93, 9.96, 12.3, 17.92, 13.76, 12.07, 10.28, 9.39, 9.39, 8.82, 7.15, 6.98, 7.37, 7.37, 6.63, 6.63, 6.63, 6.35, 6.35, 6.35, 6.35, 6.35, 6.67, 6.95, 6.95, 6.95, 6.95, 7.55, 7.55, 7.55, 7.55, 7.55, 7.55, 7.81, 7.81, 8.15, 8.15, 8.15, 8.38, 8.38, 8.38, 8.65, 8.65, 8.65, 8.65, 8.65, 8.84, 8.84, 8.84, 8.84, 8.84, 9.1, 9.1, 9.1, 9.1, 9.1, 9.1, 8.93, 8.93, 8.93, 8.93, 8.82, 8.82, 8.82, 9.2, 9.2, 9.2, 9.02, 8.82, 8.45, 8.23, 8.23, 8.23, 7.61, 7.61, 7.61, 7.61, 7.27, 6.98, 6.65, 6.32, 6.01, 6.01, 5.3, 5.3, 5.3, 5.69, 5.24, 5.46, 2.83, 2.83, 2.83, 4.2, 8.4, 9.39, 9.39, 9.83, 10.28, 10.41, 9.96, 11.87, 17.48, 17.61, 13.39, 11.62, 10.73, 9.83, 8.49, 8.85, 8.48, 8.06, 7.2, 7.28, 7.28, 7.28, 6.35, 6.35, 6.35, 6.35, 6.35, 6.65, 6.95, 6.95, 6.95, 6.95, 6.95, 7.55, 7.55, 7.55, 7.55, 7.55, 7.55, 7.81, 7.81, 8.15, 8.15, 8.15, 8.15, 8.38, 8.65, 8.65, 8.65, 8.65, 8.65, 8.65, 8.65, 8.65, 8.93, 8.93, 8.93, 8.93, 8.93, 8.93, 8.93, 8.93, 8.55, 8.55, 8.55, 8.82, 8.82, 8.82, 8.82, 8.82, 9.07, 9.07, 9.32, 8.93, 8.45, 8.45, 8.23, 8.23, 7.61, 7.61, 7.61, 7.61, 7.27, 6.98, 6.98, 6.32, 6.32, 5.64, 5.64, 4.94, 5.3, 5.3, 5.1, 5.9, 4.96, 5.46, 6.01, 8.0, 9.39, 9.39, 9.39, 9.39, 10.28, 10.41, 9.6, 10.8, 16.24, 18.93, 14.21, 12.07, 11.18, 11.18, 9.83, 8.49, 8.94, 8.94, 9.39, 9.39, 9.39, 9.39, 6.06, 6.06, 6.06, 6.06, 6.65, 6.65, 6.95, 6.95, 6.95, 6.95, 6.95, 7.23, 7.55, 7.55, 7.55, 7.55, 7.55, 7.55, 7.81, 7.81, 7.81, 8.15, 8.44, 8.44, 8.44, 8.65, 8.65, 8.65, 8.65, 8.65, 8.93, 8.93, 8.93, 8.93, 8.93, 8.93, 8.93, 8.93, 8.55, 8.55, 8.55, 8.55, 8.82, 8.82, 8.82, 8.82, 8.82, 9.07, 9.07, 9.07, 8.93, 8.93, 8.76, 8.45, 8.23, 7.87, 7.87, 7.61, 7.61, 7.61, 7.61, 6.98, 6.98, 6.65, 6.32, 5.64, 5.64, 5.21, 4.94, 5.3, 5.3, 5.24, 4.87, 6.95, 7.6, 8.0, 8.94, 8.94, 8.94, 6.64, 6.64, 8.55, 9.2, 9.48, 13.62, 17.97, 17.3, 12.96, 11.62, 11.18, 10.28, 10.28, 9.76, 9.89, 9.63, 9.21, 9.21, 9.21, 6.06, 6.06, 6.06, 6.06, 6.65, 6.65, 6.95, 6.95, 6.95, 6.95, 6.95, 7.23, 7.55, 7.55, 7.55, 7.55, 7.55, 7.55, 7.81, 7.81, 7.81, 8.15, 8.44, 8.44, 8.44, 8.65, 8.65, 8.65, 8.65, 8.65, 8.93, 8.93, 8.93, 8.93, 8.93, 8.93, 8.93, 8.93, 8.55, 8.55, 8.55, 8.55, 8.82, 8.82, 8.82, 8.82, 8.82, 9.07, 9.07, 9.07, 8.93, 8.93, 8.76, 8.45, 8.23, 7.87, 7.87, 7.61, 7.61, 7.61, 7.61, 6.98, 6.98, 6.65, 6.32, 5.64, 5.64, 5.21, 4.94, 5.3, 5.3, 5.24, 4.87, 6.95, 7.6, 8.0, 8.94, 8.94, 8.94, 6.64, 6.64, 6.95, 8.38, 9.48, 11.39, 14.95, 17.1, 15.62, 12.52, 11.62, 11.18, 11.14, 10.96, 10.18, 10.28, 9.92, 9.92, 9.92]}, {"header": {"dx": 0.06612293990616946, "dy": 0.0552356325346848, "nx": 98, "ny": 59, "la1": 35.046912555036876, "la2": 31.78801023549047, "lo1": -121.43107172385933, "lo2": -114.95102361305473, "refTime": "2026040703", "parameterCategory": 1, "parameterNumber": 3}, "data": [-9.42, -9.42, -9.42, -9.42, -9.15, -8.82, -8.53, -8.22, -7.9, -7.58, -7.25, -6.51, -5.92, -4.8, -1.93, -2.28, -2.28, 0.0, 0.0, 0.0, 0.0, 0.0, 2.06, 0.0, 0.0, 0.0, 0.0, 0.0, 0.0, 0.78, 0.0, -4.11, -5.36, -5.36, -5.26, -5.4, -5.37, -5.37, -5.75, -6.13, -6.32, -7.07, -7.68, -8.24, -7.85, -7.78, -8.18, -8.06, -7.82, -5.8, 6.45, 10.38, 9.3, 6.87, 5.54, 3.92, 3.53, 2.28, 2.08, 2.08, 2.08, 2.08, 2.08, 2.28, 2.52, 2.28, 2.28, 2.0, 2.0, 1.76, 1.7, 1.56, 1.62, 0.89, 1.93, 1.76, 1.92, 1.84, 1.01, 1.04, 1.14, 2.26, 1.98, 0.81, 0.0, 0.0, 0.0, 0.0, 0.0, 0.0, -1.25, -1.1, -1.03, -1.03, -0.89, -0.89, -0.89, -1.99, -9.42, -9.42, -9.42, -9.42, -9.42, -8.82, -9.12, -8.52, -7.59, -7.59, -7.27, -7.9, -6.24, -4.6, -4.15, -2.49, -4.0, -3.11, -5.21, -5.69, -8.4, -3.8, 0.0, 0.0, 0.0, -1.26, -1.05, -1.07, 0.0, 0.0, 0.0, -5.6, -6.26, -6.26, -6.14, -6.23, -6.13, -5.59, -5.59, -5.93, -7.07, -8.18, -8.73, -9.4, -9.56, -10.43, -10.25, -9.12, -6.96, 2.82, 10.6, 10.0, 7.9, 6.24, 5.32, 4.08, 3.68, 2.28, 2.08, 1.0, 0.97, 1.05, 1.05, 2.28, 2.19, 2.19, 2.19, 2.0, 1.92, 1.76, 1.7, 1.76, 0.85, 0.89, 0.89, 0.89, 0.97, 1.84, 1.01, 1.04, 1.14, 2.26, 1.98, 0.81, 0.0, 0.0, 0.0, 0.0, 0.0, 0.0, -1.25, -1.1, -1.03, -1.03, -0.89, -0.89, -0.89, -1.99, -9.42, -9.42, -9.42, -9.08, -9.08, -9.12, -8.78, -8.19, -8.15, -7.55, -7.25, -6.95, -7.15, -4.8, -4.4, -3.65, -4.4, -4.6, -6.95, -8.18, -8.24, -8.91, -7.07, -3.6, -1.58, -1.07, 0.0, 0.0, 0.0, 0.0, -3.2, -7.01, -7.06, -7.6, -6.58, -7.2, -5.93, -5.37, -6.18, -6.91, -7.41, -8.93, -9.66, -10.91, -10.86, -10.81, -9.36, -5.86, 2.6, 9.2, 8.55, 8.24, 6.87, 5.32, 5.32, 3.92, 2.52, 1.05, 1.09, 1.09, 1.05, 1.05, 1.16, 2.19, 2.42, 2.42, 2.19, 2.0, 1.92, 1.76, 1.7, 1.7, 0.82, 0.0, 0.0, 0.0, 0.0, 0.97, 0.82, 0.0, 1.0, 1.07, 1.1, 0.0, 0.0, 0.0, 0.0, 0.0, 0.0, -1.4, -1.47, -1.32, -2.12, -1.98, -1.03, -0.89, -0.89, -2.16, -9.42, -9.42, -9.42, -8.82, -8.82, -8.78, -8.78, -8.73, -8.15, -8.08, -7.51, -7.56, -7.9, -6.42, -6.44, -3.98, -3.98, -5.0, -7.59, -8.8, -8.4, -9.33, -8.91, -7.2, -5.37, 0.0, 0.0, 0.0, 0.0, -2.66, -5.72, -7.6, -7.31, -7.89, -8.05, -7.89, -7.67, -7.68, -7.76, -8.79, -10.04, -10.66, -9.96, -10.03, -8.37, -7.41, -1.84, 5.29, 7.47, 7.13, 6.11, 5.98, 5.1, 5.1, 4.23, 2.42, 2.19, 1.05, 1.05, 0.0, 0.0, 0.0, 1.23, 2.71, 3.92, 3.53, 2.19, 2.6, 2.41, 2.25, 2.61, 1.64, 0.8, 0.0, 0.0, 0.0, -1.07, 0.0, 0.0, 0.0, 0.0, 0.0, 0.0, 0.0, 0.0, 0.0, 0.0, 0.0, 0.0, -1.69, -1.62, -1.67, -2.12, -1.98, -1.98, -0.95, -0.95, -1.98, -9.42, -9.42, -9.42, -8.82, -8.82, -8.78, -8.78, -8.73, -8.38, -8.08, -7.73, -7.8, -8.49, -7.59, -7.59, -7.59, -6.7, -6.71, -8.94, -9.96, -10.73, -9.83, -8.4, -9.83, 0.0, 0.0, -2.54, 0.0, -1.95, -2.66, -5.93, -8.05, -7.89, -8.36, -8.94, -9.11, -9.21, -9.6, -9.67, -10.66, -10.41, -9.17, -7.27, -5.32, -4.05, 0.0, 4.88, 6.4, 6.4, 6.4, 6.3, 4.88, 3.87, 3.61, 2.49, 2.1, 1.11, 1.01, 0.0, 0.0, 0.0, 1.39, 3.07, 5.0, 3.92, 3.21, 3.08, 3.08, 2.82, 2.6, 2.34, 2.28, 1.39, 0.73, 0.0, 0.0, -1.28, -1.11, 0.0, 0.0, 0.0, 0.0, 0.0, 0.0, 0.0, 0.0, -1.03, -1.32, -1.62, -3.98, -3.65, -1.58, -2.49, -2.12, -2.12, -1.1, -0.95, -1.98, -9.42, -9.08, -9.08, -9.08, -8.82, -8.78, -8.78, -8.73, -8.65, -8.55, -8.0, -8.27, -8.07, -7.59, -8.73, -8.38, -8.73, -8.22, -8.93, -10.88, -11.18, -9.77, -9.64, -8.91, -9.39, -7.6, -7.07, -6.01, -5.1, -5.1, -6.28, -7.94, -8.05, -8.94, -9.81, -9.74, -9.54, -9.2, -9.65, -10.8, -10.0, -8.58, -6.14, -3.87, -1.09, 2.39, 5.72, 6.4, 6.4, 6.58, 5.7, 5.7, 4.05, 4.05, 2.6, 1.07, 1.11, 0.0, 0.0, 0.0, 0.0, 1.52, 4.8, 4.23, 3.39, 3.21, 3.08, 3.39, 3.39, 2.94, 2.41, 2.25, 2.25, 2.34, 1.52, 0.0, 0.0, 0.0, 0.0, 0.0, 0.0, -1.18, -2.26, -1.1, -1.18, -2.99, -4.6, -3.11, -3.39, -4.83, -3.4, -3.0, -2.49, -2.32, -2.49, -2.26, -1.84, -1.98, -9.08, -9.08, -9.08, -9.08, -9.37, -9.02, -9.3, -8.94, -9.21, -8.93, -8.43, -8.15, -9.3, -7.59, -8.53, -8.38, -8.93, -9.82, -9.66, -10.55, -11.45, -11.62, -9.85, -8.99, -9.39, -8.82, -8.41, -8.17, -7.63, -7.31, -8.67, -8.05, -8.49, -8.43, -8.38, -8.84, -9.58, -9.33, -8.93, -9.2, -10.6, -8.8, -6.64, -3.32, 0.0, 4.71, 6.32, 6.11, 6.4, 6.7, 5.52, 6.14, 5.1, 3.77, 2.6, 2.33, 1.23, 1.11, 1.01, 1.01, 1.18, 2.95, 3.39, 4.23, 4.8, 5.43, 5.21, 4.36, 3.92, 3.21, 2.94, 1.76, 2.31, 1.58, 1.48, 1.45, 1.52, 1.84, 2.09, 0.8, 0.0, -1.14, -3.6, -3.6, -4.83, -5.52, -5.75, -6.42, -5.31, -4.43, -4.65, -4.11, -4.43, -3.76, -3.0, -2.26, -1.84, -2.6, -9.08, -9.08, -9.08, -9.08, -9.37, -9.02, -9.3, -8.94, -9.21, -9.1, -8.96, -9.01, -9.77, -9.46, -9.62, -8.49, -9.16, -9.84, -9.5, -8.53, -7.54, -3.82, -8.85, -11.18, -9.83, -8.94, -9.33, -8.89, -7.6, -8.05, -8.94, -9.83, -10.28, -9.76, -8.24, -8.24, -8.38, -8.19, -6.4, -6.44, -5.37, -5.81, -3.79, -2.8, 3.0, 6.32, 5.93, 4.94, 5.36, 5.46, 5.59, 5.46, 5.1, 4.8, 3.39, 3.39, 2.19, 2.19, 1.01, 1.01, 2.33, 2.95, 3.98, 6.7, 8.24, 7.27, 6.2, 3.98, 2.42, 1.23, 1.01, 0.93, 0.86, 0.76, 0.73, 1.39, 2.28, 2.9, 2.23, 1.5, 0.68, -0.8, -3.17, -4.71, -6.14, -7.9, -6.7, -6.01, -4.89, -5.37, -4.98, -4.98, -4.98, -4.43, -4.29, -3.0, -2.47, -2.8, -9.37, -9.08, -9.08, -9.08, -9.37, -9.37, -9.3, -9.3, -9.21, -9.63, -9.88, -10.42, -12.3, -11.87, -11.2, -10.94, -11.33, -10.79, -10.41, -9.66, -6.7, -2.06, -1.29, -3.25, -9.62, -11.03, -9.26, -8.94, -8.38, -7.6, -8.94, -10.28, -11.18, -10.28, -8.91, -7.42, -6.79, -7.5, -6.14, -5.51, 0.0, 6.71, 0.0, 0.0, 0.0, 3.4, 2.83, 4.0, 3.35, 4.74, 5.7, 5.46, 5.45, 4.6, 4.36, 3.39, 3.21, 2.19, 2.0, 1.07, 2.33, 3.39, 6.44, 8.93, 8.37, 7.06, 5.0, 3.67, 1.18, 0.0, 0.0, 0.0, 0.0, 0.0, 0.76, 0.85, 0.89, 1.54, 1.5, 1.39, 1.5, 0.0, -0.74, -1.96, -3.6, -5.86, -6.95, -6.98, -4.89, -5.37, -5.81, -6.14, -6.14, -6.51, -5.06, -3.72, -2.64, -3.47, -9.37, -9.37, -9.08, -9.08, -9.37, -9.37, -9.37, -9.5, -9.76, -9.76, -10.55, -11.6, -10.68, -12.3, -12.46, -12.89, -13.57, -13.57, -13.8, -12.71, -12.42, -11.44, -9.84, -8.73, -9.62, -9.67, -8.05, -8.33, -8.05, -8.49, -7.52, -6.26, -7.6, -7.45, -7.94, -7.6, -6.0, -6.07, -7.2, -6.32, 0.0, 6.01, 3.8, 0.0, 0.0, 0.0, 0.0, 0.0, 1.75, 3.7, 5.46, 5.63, 5.9, 5.21, 5.45, 4.18, 3.08, 2.1, 1.07, 1.07, 2.82, 6.42, 8.82, 7.37, 7.96, 7.27, 5.21, 5.29, 3.61, 1.52, 0.0, 0.0, 0.0, 0.0, 0.86, 0.0, 0.0, 0.0, 0.0, 0.0, 0.0, 0.71, 0.67, 0.0, 0.0, -1.4, -5.86, -7.33, -7.28, -6.64, -6.58, -6.71, -7.15, -7.15, -6.8, -5.06, -3.33, -3.72, -9.37, -9.37, -9.08, -9.08, -9.37, -9.37, -9.59, -9.86, -9.86, -10.3, -10.83, -11.5, -11.62, -11.75, -12.99, -12.56, -13.39, -14.64, -15.25, -16.28, -17.59, -18.0, -16.7, -15.0, -13.77, -10.79, -7.95, -6.17, -6.26, -7.15, -6.71, -6.71, -4.74, -5.6, -6.14, -7.15, -8.05, -8.94, -3.8, 0.0, 1.93, 4.2, 2.69, 0.0, 0.0, 0.0, 0.0, 0.0, 1.95, 4.83, 5.31, 5.72, 5.2, 4.74, 4.2, 3.11, 2.02, 1.02, 0.0, 1.45, 6.95, 7.6, 6.8, 7.76, 9.55, 9.6, 8.12, 6.95, 6.17, 4.8, 3.53, 2.0, 2.0, 0.97, 0.0, 0.0, -0.89, -2.02, -1.93, -1.68, -0.72, 0.0, 0.0, 0.68, 0.69, 0.0, -1.33, -5.52, -7.27, -3.8, -5.06, -7.6, -7.15, -7.6, -7.21, -5.93, -4.29, -4.29, -9.37, -9.37, -9.08, -9.42, -9.42, -9.94, -9.94, -9.94, -10.41, -10.41, -10.96, -11.5, -11.62, -11.88, -11.04, -10.73, -9.3, -10.4, -12.33, -14.3, -14.23, -13.57, -13.73, -13.75, -10.18, -8.79, -6.61, -2.24, -4.47, -4.11, -4.74, -0.0, 3.2, -0.0, -4.43, -6.71, -7.6, 0.0, 0.0, 2.28, 4.4, 5.63, 4.96, 2.69, 0.0, 0.0, 3.2, 5.37, 6.32, 5.37, 3.97, 3.4, 1.58, 1.2, 1.11, 0.0, 0.0, 0.0, 0.0, 5.21, 7.54, 8.14, 7.89, 9.79, 10.28, 10.14, 9.42, 6.95, 5.9, 4.25, 3.25, 3.39, 2.39, 2.02, 0.98, 0.0, -0.98, -2.13, -2.59, -2.47, -2.83, -0.89, 0.0, 0.73, 0.69, 0.67, 0.0, 0.0, 0.0, 2.06, 2.12, 0.0, -6.4, -7.6, -7.47, -5.93, -4.58, -3.97, -9.37, -9.37, -9.08, -9.42, -9.66, -9.66, -9.94, -9.94, -10.51, -10.51, -11.07, -11.62, -11.72, -12.16, -11.69, -11.06, -10.43, -10.22, -10.18, -10.3, -10.35, -9.8, -9.8, -7.44, -2.24, 0.0, 0.0, 0.0, 0.63, 0.0, -3.79, -0.0, 3.2, 5.06, 7.15, 7.6, 7.6, 8.49, 7.6, 4.0, 4.96, 4.0, 3.8, 0.0, 0.0, 0.0, 6.71, 7.15, 5.06, 0.0, -1.98, -3.72, -4.02, -4.01, -3.91, -2.82, -1.58, 0.0, 0.0, 5.81, 8.49, 8.9, 9.24, 9.83, 10.25, 9.83, 8.48, 7.06, 4.56, 4.6, 4.6, 4.25, 3.36, 1.76, 0.0, 0.0, -1.84, -2.7, -3.06, -3.32, -3.63, -3.3, -2.12, -2.23, 0.0, 0.0, 0.0, 0.0, 2.83, 4.14, 2.8, 1.52, 0.0, -3.4, -3.97, -3.68, -3.2, -3.2, -9.37, -9.37, -9.42, -9.42, -9.66, -9.66, -9.66, -10.51, -10.51, -10.51, -11.07, -11.62, -11.72, -12.37, -12.57, -11.72, -10.98, -10.18, -9.89, -10.37, -9.66, -8.12, -6.24, -3.52, -1.4, 0.0, 0.0, 0.0, 0.0, -0.56, -1.66, -4.43, 0.0, 0.0, 7.15, 7.6, 7.6, 8.06, 6.01, 0.0, 0.0, 0.0, -2.69, -2.54, -4.74, 7.15, 6.26, 7.15, 0.0, -5.06, -5.06, -5.95, -5.75, -6.4, -6.32, -5.6, -7.63, -1.95, -1.84, 7.15, 8.22, 9.74, 10.28, 9.39, 8.49, 7.97, 7.6, 5.37, 2.83, 4.42, 5.76, 5.06, 2.39, 0.0, -0.72, -1.54, -1.94, -3.14, -3.14, -3.14, -3.52, -4.2, -3.6, -3.7, -2.06, -1.54, -0.85, 0.0, 2.54, 3.91, 4.83, 3.2, 1.52, 0.0, 0.0, -1.4, -1.32, 0.0, -9.37, -9.37, -9.42, -9.66, -10.01, -10.01, -10.01, -10.23, -10.23, -10.59, -10.8, -11.16, -11.72, -11.8, -12.52, -12.31, -11.72, -11.01, -10.6, -10.15, -9.61, -8.53, -7.0, -5.49, -3.55, -2.4, -1.21, -0.61, -0.61, -1.18, -1.12, -2.16, 0.0, 0.0, 5.37, 8.05, 8.48, 8.06, 4.2, 0.0, -2.69, -5.21, -4.71, -3.6, 0.0, 7.6, 7.21, 7.6, 0.0, -6.71, -6.4, -5.06, -5.37, -3.4, 0.0, -7.15, -7.6, -6.32, -3.72, 8.05, 7.67, 9.11, 8.94, 8.05, 8.05, 8.05, 8.05, 0.0, 6.01, 7.07, 5.15, 2.47, 0.0, -1.56, -3.11, -3.49, -1.47, 0.0, 0.0, 0.0, 0.0, -1.2, -1.65, -2.26, -3.09, -4.0, -2.99, -1.07, 1.32, 3.4, 4.0, 3.15, 1.63, 1.63, 1.73, 1.52, 4.43, 4.43, -9.37, -9.71, -9.66, -10.01, -10.01, -10.01, -10.01, -10.23, -10.59, -10.59, -11.16, -11.16, -11.23, -11.8, -12.16, -11.63, -11.37, -11.05, -10.3, -10.23, -9.42, -8.05, -7.0, -5.85, -4.63, -2.95, -2.38, -1.2, -0.58, -0.58, -1.22, -1.95, -2.12, 0.0, 2.54, 6.36, 8.24, 7.6, 2.83, 0.0, -4.22, -3.4, -3.8, 0.0, 0.0, 7.6, 7.63, 7.2, 7.6, 0.0, -5.37, -3.4, 0.0, 3.4, 3.4, 0.0, -6.7, -7.15, -3.11, 8.55, 9.83, 9.83, 8.06, 3.6, 0.0, 0.0, -6.71, 0.0, 8.94, 7.44, 1.07, -1.47, -3.07, -4.68, -4.6, -1.32, 4.11, 3.63, 2.88, 2.47, 2.2, 1.63, 0.79, 0.0, -0.89, -1.32, -3.91, -1.32, 0.0, 2.26, 2.17, 3.4, 3.97, 4.56, 4.29, 5.75, 5.51, 5.51, -9.94, -9.66, -10.01, -10.01, -10.01, -10.01, -10.01, -10.23, -10.59, -10.59, -11.16, -10.88, -11.23, -11.23, -11.58, -11.58, -11.05, -10.74, -10.08, -9.55, -8.59, -7.54, -6.73, -4.99, -3.1, -2.38, -1.76, -1.81, -1.18, -1.19, -1.7, -2.37, -2.33, -3.25, 0.0, 5.37, 5.37, 2.69, 0.0, -1.84, -5.06, -5.58, -2.54, 0.0, 0.0, 8.49, 8.06, 8.49, 7.6, 7.6, 6.01, 6.01, 6.01, 4.96, 2.83, 0.0, -1.84, 0.0, 3.82, 9.58, 9.58, 8.8, 4.96, 2.69, 0.0, -2.12, -6.8, -8.05, 0.0, -2.69, -3.52, -6.44, -6.97, -5.49, -4.43, 6.07, 6.57, 6.39, 5.21, 4.71, 4.46, 3.15, 2.23, 1.4, 0.0, 0.0, -1.41, 0.0, 0.0, 0.0, 0.0, 3.8, 7.6, 7.89, 7.6, 6.88, 6.2, 6.2, -9.94, -9.66, -10.01, -10.01, -10.01, -10.01, -10.01, -10.23, -10.59, -10.59, -10.65, -10.65, -11.23, -11.23, -10.99, -10.99, -11.05, -10.75, -9.73, -8.58, -7.26, -7.47, -6.16, -3.88, -1.89, -1.19, -2.32, -2.44, -2.44, -2.96, -2.93, -2.94, -3.37, -2.23, -1.01, 0.0, 0.0, -2.69, -3.4, -3.2, -3.97, -5.37, -3.4, 0.0, 3.6, 8.94, 8.94, 8.48, 6.32, 6.32, 6.32, 6.32, 6.32, 4.96, 4.0, 1.84, 1.54, 3.11, 7.27, 8.38, 8.03, 5.9, 4.2, 2.17, 0.0, 0.0, -3.97, -7.63, -8.24, -7.81, -6.64, -4.94, -3.6, -3.65, 3.53, 10.4, 9.08, 5.86, 5.2, 4.15, 3.39, 2.02, 0.85, 0.0, 0.0, 0.0, 0.0, 1.52, 0.0, 0.0, 6.01, 7.15, 8.48, 8.91, 8.48, 7.31, 6.2, 6.2, -9.94, -9.66, -10.01, -10.01, -10.01, -10.01, -10.01, -10.01, -10.59, -10.3, -10.3, -10.65, -10.65, -10.65, -10.94, -11.94, -10.99, -10.42, -8.53, -6.94, -7.0, -7.6, -7.49, -6.43, -5.31, -4.42, -4.81, -5.61, -5.61, -5.3, -4.81, -4.07, -3.39, -2.26, -1.84, -2.49, -3.97, -4.94, -5.72, -4.2, -3.4, -1.95, 0.0, 0.0, 3.8, 6.32, 6.64, 5.21, 5.21, 5.21, 6.32, 6.32, 6.32, 4.0, 4.0, 4.83, 4.83, 6.14, 7.27, 6.42, 5.29, 3.65, 1.84, 0.0, 0.0, -1.84, -3.4, -4.56, -6.87, -6.98, -1.91, 1.08, 2.98, 2.88, 2.31, 0.0, 0.0, -1.38, 0.0, 0.0, -0.98, -1.6, -2.35, -1.95, -1.94, -1.26, -1.47, 0.0, 0.0, 3.72, 7.45, 8.38, 8.8, 8.91, 8.48, 7.21, 6.61, 6.61, -9.94, -9.66, -9.66, -9.66, -10.01, -10.01, -10.01, -10.01, -9.72, -10.3, -10.3, -10.3, -10.65, -10.65, -11.23, -10.73, -10.7, -9.94, -10.03, -8.87, -9.62, -9.67, -10.11, -10.05, -10.25, -10.15, -9.28, -8.4, -7.7, -6.4, -4.65, -3.39, -2.23, -1.88, -1.3, -1.7, -3.22, -3.6, -2.44, -1.6, -0.81, 0.0, 1.62, 3.11, 4.28, 4.4, 3.32, 4.2, 4.2, 4.96, 4.96, 4.96, 5.36, 5.36, 4.83, 5.59, 5.7, 6.64, 6.14, 5.29, 3.49, 1.84, 0.0, 0.0, -1.84, -1.84, 0.0, 0.0, 0.0, 3.61, 4.99, 5.91, 5.51, 3.22, 0.0, -2.88, -7.68, -8.38, -5.78, -3.82, -3.51, -2.97, -2.97, -2.18, -1.73, -1.73, -1.1, 0.0, 7.15, 4.98, 6.79, 8.05, 8.48, 8.3, 7.89, 7.45, 6.61, 6.61, -9.94, -9.94, -9.66, -9.66, -9.66, -9.66, -10.01, -10.01, -9.72, -10.06, -10.06, -10.3, -10.3, -10.65, -10.69, -10.99, -10.35, -9.94, -10.15, -11.88, -11.62, -11.7, -11.72, -11.1, -11.4, -10.76, -8.83, -8.2, -6.27, -4.08, -2.28, -1.69, -1.14, -1.41, -1.41, 0.0, -0.96, -0.78, -0.76, -0.71, 0.0, 0.75, 1.56, 2.82, 3.37, 4.05, 2.83, 3.49, 2.28, 2.17, 2.06, 4.71, 4.0, 5.36, 6.64, 6.01, 8.0, 7.47, 5.52, 2.28, 0.0, 0.0, 0.0, -1.67, 0.0, 3.4, 7.15, 7.6, 8.17, 8.21, 8.38, 8.18, 6.89, 3.12, 0.0, -4.95, -10.47, -10.9, -9.96, -7.78, -5.35, -3.25, -2.17, -0.67, -0.76, 0.0, 0.0, 1.05, 3.63, 6.17, 7.6, 8.05, 6.36, 6.36, 6.58, 6.58, 5.81, 5.81, -9.94, -9.94, -9.94, -9.66, -9.66, -9.66, -9.66, -10.01, -9.72, -9.72, -10.06, -10.06, -10.06, -10.65, -10.36, -10.36, -10.06, -10.59, -11.87, -12.6, -12.01, -10.45, -9.82, -10.13, -10.11, -8.77, -7.03, -5.28, -3.77, -1.98, -1.23, -0.58, -1.2, -1.36, -0.89, 0.0, 0.0, 0.0, 0.0, 0.0, 0.0, 0.0, 0.65, 1.36, 1.91, 2.4, 2.58, 1.84, 1.75, 2.06, 2.83, 2.69, 4.96, 6.32, 7.51, 8.05, 8.79, 9.2, 7.27, 4.0, 0.0, 0.0, 0.0, 0.0, 3.8, 8.05, 7.06, 7.06, 7.6, 8.49, 9.26, 9.46, 6.88, 3.2, -6.0, -9.2, -12.05, -12.65, -12.33, -10.79, -8.53, -5.76, -3.06, -0.73, 0.0, 0.0, 0.0, 0.0, 3.0, 5.84, 6.63, 7.06, 5.51, 4.66, 5.29, 5.29, 5.81, 5.81, -9.59, -9.59, -9.59, -9.42, -9.42, -9.42, -9.42, -9.66, -9.72, -9.72, -9.72, -10.06, -10.06, -10.09, -10.09, -10.09, -10.09, -10.69, -11.36, -11.72, -10.13, -8.49, -7.6, -8.23, -8.18, -7.7, -6.33, -4.85, -3.61, -2.48, -1.81, -1.19, -1.12, -1.1, -0.67, 0.0, 0.0, 0.0, 0.0, 0.0, 0.0, 0.0, 0.0, 0.62, 1.16, 1.73, 1.33, 0.0, 0.0, 0.0, 2.83, 5.21, 4.96, 8.0, 8.0, 9.21, 8.85, 8.79, 8.18, 5.03, 0.0, 0.0, -2.54, 0.0, 8.05, 7.08, 6.71, 6.26, 6.94, 7.21, 7.2, 6.32, 0.0, 0.0, -4.74, -7.81, -10.55, -11.99, -12.79, -12.79, -11.12, -8.64, -5.49, -3.91, -2.99, -1.45, -1.84, -1.14, 3.22, 4.74, 4.95, 4.74, 4.98, 4.66, 4.85, 4.41, 5.26, 5.26, -9.37, -9.37, -9.37, -9.37, -9.42, -9.42, -9.42, -9.42, -9.13, -9.46, -9.46, -9.72, -9.77, -9.77, -10.09, -10.09, -10.09, -10.72, -10.76, -10.77, -9.49, -8.33, -7.64, -7.16, -6.88, -7.06, -6.36, -5.67, -4.66, -4.13, -2.92, -2.37, -1.75, -1.16, -1.14, -0.58, -0.61, 0.0, 0.0, 0.0, 0.0, 0.0, 0.0, 0.0, 0.58, 0.56, 0.0, 0.0, 0.0, 2.69, 4.96, 4.96, 6.32, 7.07, 8.67, 8.67, 8.05, 8.49, 8.0, 5.59, 2.12, -2.12, -5.06, 6.79, 6.36, 6.21, 6.26, 8.94, 8.49, 7.21, -0.0, -6.45, -2.71, 0.0, 1.47, 0.0, -7.63, -10.32, -11.21, -11.99, -12.13, -10.15, -8.24, -6.95, -5.94, -5.3, -3.63, 0.0, 5.01, 6.16, 5.09, 4.09, 5.2, 5.6, 5.94, 5.51, 4.98, 4.98, -9.37, -9.37, -9.37, -9.37, -9.08, -9.08, -9.42, -9.42, -9.13, -9.13, -9.46, -9.46, -9.48, -9.77, -9.77, -10.09, -9.8, -10.43, -10.45, -10.13, -9.5, -8.46, -8.04, -7.76, -7.1, -6.43, -5.92, -5.7, -5.21, -4.66, -4.01, -2.92, -2.37, -2.32, -1.72, -1.67, -1.18, -0.6, -0.6, -0.6, 0.0, 0.0, 0.0, 0.0, 0.0, 0.0, -0.57, 0.0, 0.0, 0.73, 1.65, 3.49, 3.8, 6.01, 7.07, 8.48, 8.48, 7.6, 5.69, 1.95, 2.33, 0.0, 0.0, 5.21, 5.59, 6.21, 8.94, 9.39, 8.94, 7.6, -8.4, -6.98, -2.63, 0.81, 3.17, 3.87, 2.89, 0.0, -7.28, -9.66, -11.06, -11.3, -10.45, -9.21, -8.03, -5.82, -1.7, 5.81, 7.06, 6.71, 7.56, 7.06, 5.6, 5.58, 4.54, 4.6, 6.13, 6.13, -9.37, -9.37, -9.37, -9.37, -9.37, -9.08, -9.08, -9.42, -9.13, -9.13, -9.13, -9.46, -9.17, -9.48, -9.48, -9.48, -10.12, -10.13, -9.84, -9.5, -9.5, -8.85, -8.18, -7.76, -7.06, -6.4, -5.73, -5.25, -5.25, -4.55, -4.03, -3.5, -2.94, -2.87, -2.26, -2.3, -1.76, -1.76, -1.18, -1.18, -0.57, -0.6, 0.0, 0.0, 0.0, 0.0, 0.0, 0.0, 0.0, 0.0, 0.65, 0.69, 1.67, 2.06, 4.96, 7.44, 6.01, 5.69, 5.37, 0.0, 0.0, 1.26, 2.4, 6.71, 5.73, 8.49, 9.39, 8.94, 7.6, 7.2, -4.96, -5.75, -2.82, 0.0, 2.28, 5.45, 6.32, 3.53, -1.07, -7.81, -10.75, -12.13, -12.01, -10.45, -6.98, -4.83, 6.08, 7.5, 7.6, 6.71, 5.81, 7.98, 6.52, 4.75, 3.72, 5.06, 6.28, 6.28, -9.02, -9.02, -8.78, -8.78, -8.78, -8.82, -8.82, -8.82, -8.85, -8.85, -9.13, -9.17, -9.17, -9.17, -9.48, -9.19, -9.5, -9.82, -9.21, -9.21, -9.21, -8.85, -8.85, -8.18, -7.5, -6.4, -5.92, -5.25, -5.25, -4.58, -4.07, -3.53, -3.41, -2.9, -2.37, -2.3, -2.42, -2.42, -1.84, -1.76, -1.18, -1.14, -0.58, -0.58, 0.0, 0.0, 0.0, 0.0, 0.0, 0.0, 0.0, 0.0, 0.0, 0.0, 1.49, 2.54, 2.83, 2.54, 5.37, 5.06, 0.0, 0.0, 0.0, 5.58, 8.05, 8.49, 8.94, 7.63, 6.8, 0.0, -2.83, -4.6, -5.0, -2.93, 0.93, 4.06, 3.73, 2.76, 0.89, -6.13, -8.36, -11.72, -12.5, -10.79, -5.36, 0.0, 7.06, 7.5, 7.15, 6.71, 5.36, 4.4, 6.06, 5.0, 4.36, 5.44, 5.69, 5.69, -8.78, -8.78, -8.78, -8.78, -8.78, -8.5, -8.5, -8.82, -8.82, -8.85, -8.85, -8.56, -8.87, -9.17, -9.48, -9.19, -9.21, -9.5, -9.5, -8.86, -8.86, -8.58, -8.85, -8.18, -7.76, -6.85, -6.4, -5.73, -5.25, -4.74, -4.07, -3.53, -3.41, -2.9, -2.37, -2.39, -2.3, -2.3, -1.74, -1.74, -1.76, -1.14, -0.58, 0.0, 0.0, 0.0, 0.0, 0.0, -0.58, -0.62, 0.0, 0.0, 0.0, 0.0, 0.0, 0.0, 0.0, 0.0, 5.37, 6.8, 0.0, -1.4, -1.11, 5.37, 8.49, 9.7, 8.67, 3.6, -5.69, -3.8, -2.28, -2.82, -5.43, -6.16, -5.2, -3.06, -1.77, 0.0, 0.0, -1.8, -5.31, -6.97, -8.6, -8.66, -4.98, 0.0, 6.26, 7.15, 6.61, 6.23, 4.98, 4.65, 4.74, 4.94, 4.94, 4.98, 4.71, 4.71, -8.78, -8.78, -8.78, -8.78, -8.78, -8.5, -8.5, -8.5, -8.82, -8.53, -8.85, -8.56, -8.56, -8.87, -8.58, -8.87, -9.21, -9.21, -8.87, -8.87, -8.86, -8.86, -8.2, -8.2, -7.53, -7.53, -6.88, -6.43, -5.25, -4.74, -4.07, -4.07, -3.53, -2.87, -2.8, -2.28, -2.39, -2.39, -1.81, -1.74, -1.74, -1.18, -1.15, -0.93, 0.0, 1.18, 0.0, -0.6, -1.22, -0.61, -0.64, -0.65, -0.63, -0.61, -0.58, -0.61, 0.0, 0.0, 3.4, 3.4, 0.0, -2.54, -1.58, 7.2, 8.82, 8.6, 8.22, 6.7, -5.37, -8.06, -5.21, -2.6, -2.08, -5.4, -9.17, -9.56, -7.93, -4.98, -1.98, -0.79, -4.77, -4.02, -4.89, -3.99, -4.34, -3.79, 0.0, 4.43, 4.74, 3.72, 4.11, 4.11, 3.45, 3.97, 4.37, 5.21, 3.8, 3.8, -8.78, -8.78, -8.78, -8.78, -8.78, -8.5, -8.5, -8.5, -8.5, -8.53, -8.53, -8.56, -8.56, -8.87, -8.58, -8.87, -8.59, -8.87, -8.87, -8.87, -8.59, -8.86, -8.22, -7.95, -7.55, -7.55, -7.13, -6.22, -5.77, -5.08, -4.74, -4.07, -3.53, -3.41, -2.9, -2.93, -2.28, -2.28, -2.39, -1.74, -1.74, -1.18, -1.14, -1.16, -0.57, 0.0, 0.0, -1.16, -1.71, -1.36, -1.49, -1.49, -1.25, -1.28, -1.23, -1.26, -1.3, -1.3, 0.0, 0.0, -1.73, -2.82, 0.0, 8.24, 8.24, 7.81, 7.94, 7.6, 2.26, -7.07, -7.87, -4.8, 0.0, 0.0, -6.0, -9.39, -9.67, -7.72, -3.72, -0.89, -0.73, -3.22, -4.92, -4.47, -3.6, -1.83, 0.0, 0.0, -1.63, 0.0, 0.0, 3.22, 2.49, 3.99, 3.8, 4.0, 3.27, 3.27, -8.78, -8.78, -8.78, -8.78, -8.78, -8.22, -8.22, -8.22, -8.22, -8.24, -8.24, -8.53, -8.56, -8.56, -8.58, -8.87, -8.59, -8.59, -8.59, -8.59, -8.22, -8.22, -8.22, -7.83, -7.55, -7.31, -6.9, -6.46, -5.11, -5.08, -5.25, -4.55, -4.07, -3.41, -3.44, -2.93, -2.82, -2.28, -2.3, -1.74, -1.74, -1.67, -1.76, -1.81, -1.75, -2.82, -2.61, -1.65, -1.2, -0.59, -0.67, -0.78, -0.78, -1.36, -1.26, -2.04, -2.04, -2.04, -1.19, -1.52, -1.63, -1.84, 4.71, 7.07, 6.01, 7.2, 7.15, 6.8, 1.84, -2.06, -7.15, -6.64, 2.39, 2.81, 0.0, -4.66, -7.82, -7.89, -5.98, -3.49, -1.44, -1.47, -1.8, -1.83, -0.89, 0.0, 0.55, 0.67, 0.0, 0.0, 0.0, 2.26, 1.23, 2.09, 2.18, 2.75, 2.82, 2.82, -8.45, -8.45, -8.45, -8.45, -8.19, -7.9, -8.22, -8.22, -8.22, -7.93, -8.24, -8.24, -8.24, -8.56, -8.58, -8.58, -8.87, -8.23, -8.23, -8.23, -8.23, -7.96, -7.96, -7.57, -7.57, -7.16, -6.92, -6.27, -6.0, -5.36, -5.28, -5.08, -4.58, -4.1, -3.44, -2.8, -2.93, -2.82, -2.39, -2.3, -1.74, -1.74, -1.76, -1.79, -2.25, -3.03, -2.96, -1.18, -0.59, -0.63, -0.69, -0.76, -0.79, -0.89, -1.01, -1.6, -2.29, -2.29, -2.11, -1.73, -1.63, 0.0, 6.01, 4.46, 4.71, 2.69, 0.0, -8.05, -4.46, -3.15, -1.73, 7.6, 9.39, 0.0, 0.0, -2.28, -6.4, -8.05, -7.62, -5.43, -3.11, -0.8, 0.0, 0.0, 0.69, 1.3, 1.14, 1.69, 0.74, 1.01, 0.0, 0.0, 0.0, 0.0, 1.58, 2.0, 2.0, 2.0, -8.45, -8.45, -8.19, -8.19, -8.19, -7.9, -7.9, -8.22, -8.22, -7.93, -7.93, -8.24, -8.24, -7.95, -7.96, -8.24, -8.24, -8.24, -7.96, -7.96, -8.23, -7.96, -7.57, -7.57, -7.57, -6.92, -6.92, -6.92, -6.27, -6.0, -5.2, -4.68, -4.48, -4.13, -3.44, -3.32, -2.93, -2.82, -2.28, -2.39, -2.39, -2.3, -1.76, -1.76, -2.23, -2.33, -2.39, -1.81, -1.23, -1.28, -1.33, -1.36, -1.47, -1.67, -0.84, -0.95, -1.1, -2.32, -1.84, -1.47, -1.47, 3.6, 2.83, 2.4, 4.46, 2.54, 0.0, 0.0, -4.71, -2.17, 1.67, 7.07, 6.64, -4.15, -3.38, -2.36, -4.13, -7.15, -6.44, -2.52, -0.92, 0.0, 1.67, 1.67, 1.09, 0.56, 0.56, 1.12, 2.21, 1.96, 1.63, 0.0, 0.0, 0.0, 0.0, 0.85, 0.69, 0.69, -8.19, -8.19, -8.19, -8.19, -8.19, -7.9, -7.9, -8.22, -8.22, -8.22, -7.93, -8.24, -8.24, -7.95, -8.24, -7.96, -7.96, -8.24, -7.96, -7.96, -7.59, -7.59, -7.59, -7.32, -7.32, -7.19, -7.19, -6.92, -6.9, -5.83, -5.2, -4.54, -4.05, -4.02, -3.47, -3.47, -2.82, -2.82, -2.82, -2.39, -2.39, -2.39, -2.3, -2.33, -2.33, -2.33, -2.3, -1.81, -1.84, -1.86, -1.98, -1.93, -1.97, -2.01, -1.32, -1.49, -0.79, -0.95, -1.23, -1.14, 0.0, 0.0, 3.6, 3.6, 3.2, 3.4, 3.4, 0.0, 0.0, 0.0, 1.95, 5.46, 0.0, -5.0, -6.47, -3.86, -0.84, 1.25, 2.82, 1.0, 0.0, 0.0, 0.0, 0.0, -0.69, 0.0, 0.0, 1.05, 2.23, 2.35, 1.72, 1.32, 0.0, -0.96, -0.78, 0.0, 0.0, 0.0, -8.19, -8.19, -8.19, -8.19, -8.19, -7.9, -7.9, -7.9, -8.22, -8.22, -7.93, -7.93, -8.24, -7.95, -7.95, -7.96, -7.6, -7.6, -7.59, -7.59, -7.59, -7.59, -7.59, -7.59, -7.19, -7.19, -7.19, -6.92, -6.92, -6.25, -5.17, -4.51, -4.72, -4.02, -4.02, -3.5, -3.5, -2.96, -2.84, -2.84, -2.39, -2.39, -2.3, -2.42, -2.3, -2.3, -2.39, -2.39, -2.42, -2.56, -2.6, -2.76, -2.82, -2.76, -2.63, -2.06, -2.0, -1.55, -0.95, -3.72, -1.84, 0.0, 0.0, 3.6, 3.6, 3.6, 3.4, 0.0, 0.0, 0.0, 0.0, 0.0, 0.0, -1.71, -4.04, -2.44, 1.56, 5.09, 4.81, 2.5, 0.0, -2.16, -2.85, -2.85, -2.09, -0.55, 0.54, 1.49, 1.73, 1.45, 0.83, 0.0, 0.0, -0.82, -1.6, -1.98, -0.69, -0.69, -8.19, -8.19, -8.19, -8.19, -8.19, -8.19, -7.9, -7.9, -7.9, -8.22, -7.93, -7.93, -7.93, -7.61, -7.61, -7.61, -7.6, -7.6, -7.6, -7.59, -7.59, -7.59, -7.59, -6.94, -6.94, -6.94, -6.94, -6.68, -6.27, -6.27, -5.83, -5.17, -4.68, -4.51, -4.02, -3.86, -3.37, -3.37, -2.84, -2.84, -2.84, -2.3, -2.42, -1.76, -1.74, -2.39, -2.28, -2.96, -3.11, -3.15, -3.2, -3.39, -3.46, -3.53, -3.37, -2.83, -2.9, -2.31, -2.4, -3.45, -3.47, 0.0, 0.0, 3.4, 3.6, 2.83, 2.54, 0.0, 0.0, 0.0, -3.8, 0.0, 0.0, 0.86, 0.0, -0.81, 0.81, 2.5, 2.45, 0.0, -1.42, -2.76, -3.6, -3.07, -1.63, 0.0, 0.98, 1.0, 0.94, 0.89, 0.0, 0.0, -1.01, -2.12, -2.04, -1.98, -1.32, -1.32, -8.19, -8.19, -8.19, -8.19, -8.19, -8.19, -7.9, -7.9, -7.9, -8.22, -7.93, -7.93, -7.61, -7.61, -7.61, -7.61, -7.33, -7.6, -7.6, -7.33, -7.33, -7.33, -6.94, -6.94, -6.94, -6.94, -6.94, -6.53, -6.53, -6.53, -5.62, -5.62, -5.17, -5.17, -4.51, -4.02, -3.86, -3.53, -3.53, -2.87, -2.87, -2.87, -2.35, -1.91, -1.2, -1.74, -2.93, -3.47, -3.5, -3.53, -3.77, -3.98, -4.05, -3.53, -3.37, -3.44, -3.7, -2.9, -3.2, -3.72, -3.45, -3.47, 0.0, 0.0, 0.0, 0.0, 0.0, 0.0, 0.0, -3.4, -3.2, 0.0, 2.97, 2.82, 0.86, -1.57, -3.23, -3.25, -3.98, -4.35, -3.69, -3.04, -2.51, -2.02, -1.09, 0.0, 0.0, 0.0, 0.0, 0.0, 0.0, 0.0, -1.14, -1.96, -3.2, -3.0, -3.2, -2.12, -7.86, -7.86, -7.86, -7.86, -8.19, -8.19, -7.9, -7.9, -7.9, -7.9, -7.93, -7.61, -7.61, -7.61, -7.33, -7.61, -7.61, -7.33, -7.6, -7.6, -7.33, -6.94, -6.94, -6.94, -6.94, -6.94, -6.94, -6.53, -6.29, -6.29, -5.86, -5.86, -5.62, -5.17, -5.17, -4.51, -4.02, -4.05, -4.05, -3.39, -3.39, -2.9, -2.93, -2.0, -1.28, -1.81, -3.6, -4.13, -4.17, -4.43, -4.48, -3.98, -3.82, -3.87, -3.93, -3.44, -3.7, -3.51, -3.69, -3.55, -3.47, -2.99, 0.0, 0.0, 0.0, 0.0, 0.0, 0.0, 0.0, -3.4, -3.2, 0.0, 0.0, 0.0, 0.0, -0.79, -3.44, -6.0, -6.51, -6.34, -5.02, -3.23, -1.77, -0.89, 0.0, 0.0, 0.0, 0.0, 0.0, 0.0, 0.0, -1.11, -2.46, -2.33, -3.6, -3.55, -3.55, -3.2, -8.15, -8.15, -7.86, -7.86, -7.86, -8.19, -7.9, -7.9, -7.9, -7.9, -7.6, -7.61, -7.61, -7.61, -7.61, -7.33, -7.61, -7.61, -7.33, -7.6, -7.22, -6.94, -6.94, -6.94, -6.94, -6.94, -6.94, -6.29, -6.29, -6.29, -5.86, -5.86, -5.86, -5.4, -5.2, -5.2, -4.51, -4.72, -4.05, -4.05, -3.89, -3.42, -3.45, -3.7, -3.68, -2.93, -4.1, -5.17, -4.95, -5.0, -4.3, -4.54, -4.35, -4.4, -3.93, -4.2, -4.28, -4.14, -3.69, -3.55, -3.64, -3.47, -2.16, -2.69, 0.0, 0.0, -2.4, -2.54, -3.4, -2.4, 0.0, 0.0, -8.0, -4.4, 0.0, 2.64, 1.72, -1.77, -3.82, -4.94, -4.81, -2.62, -0.89, 0.0, 0.97, 0.93, 1.6, 1.75, 1.16, 1.04, 0.0, 0.0, -1.33, -2.46, -3.8, -4.22, -3.97, -3.55, -8.15, -8.15, -7.86, -7.86, -7.86, -7.86, -8.19, -7.9, -7.9, -7.6, -7.6, -7.32, -7.61, -7.61, -7.61, -7.33, -7.33, -7.61, -7.33, -6.96, -7.22, -7.22, -7.22, -6.94, -6.94, -6.94, -6.7, -6.29, -6.29, -6.29, -6.06, -5.64, -5.64, -5.64, -5.2, -5.2, -5.2, -4.72, -4.72, -4.54, -4.05, -4.08, -4.12, -4.84, -5.26, -5.86, -4.65, -4.57, -4.4, -4.6, -4.84, -4.84, -4.6, -4.4, -4.66, -4.73, -4.28, -4.14, -4.22, -4.29, -3.9, -3.72, -4.71, -3.6, -3.6, -2.69, -2.54, -2.83, -3.4, 0.0, 0.0, 0.0, -6.32, -7.81, -3.11, 0.0, 2.02, 0.0, -2.31, -3.82, -4.23, -1.91, 0.0, 2.37, 2.94, 2.83, 1.94, 1.94, 1.75, 1.75, 1.94, 1.11, 0.0, 0.0, -2.54, -4.14, -4.14, -4.14, -8.15, -8.15, -8.15, -7.86, -7.86, -7.86, -8.19, -7.9, -7.6, -7.6, -7.6, -7.6, -7.32, -7.61, -7.61, -7.61, -7.33, -7.33, -7.61, -6.96, -6.96, -6.96, -6.96, -6.96, -6.96, -6.7, -6.7, -6.29, -6.56, -6.56, -6.31, -6.31, -5.64, -5.64, -5.64, -5.2, -5.2, -5.2, -5.0, -4.54, -4.54, -4.76, -4.57, -5.23, -5.86, -5.8, -4.68, -3.61, -3.93, -4.45, -4.66, -5.15, -5.15, -5.15, -4.92, -4.73, -4.8, -4.87, -4.46, -4.29, -4.36, -4.43, -3.91, -4.96, -2.69, -2.69, 0.0, -2.54, 0.0, 2.54, 0.0, 0.0, -6.64, -7.6, -9.55, -6.95, -4.48, -3.58, -2.89, 0.0, 2.1, 5.0, 4.81, 3.76, 2.76, 2.31, 1.84, 1.84, 1.92, 1.92, 1.84, 0.98, 1.16, 0.0, -3.15, -3.15, -3.15, -3.15, -8.15, -8.15, -8.15, -7.86, -7.86, -7.86, -7.86, -7.6, -7.6, -7.6, -7.6, -7.6, -7.32, -7.32, -7.61, -7.61, -7.33, -7.33, -6.97, -6.96, -6.96, -6.96, -6.96, -6.96, -6.96, -6.96, -6.7, -6.29, -6.56, -6.56, -6.31, -6.31, -6.31, -5.89, -5.89, -5.89, -5.89, -5.44, -5.23, -5.23, -5.0, -5.0, -5.23, -5.44, -5.86, -5.36, -4.17, -3.72, -3.98, -4.05, -4.66, -4.66, -4.45, -5.21, -4.96, -4.96, -5.0, -4.87, -4.94, -5.0, -4.65, -4.74, -4.43, -4.96, -2.69, 0.0, 0.0, 0.0, 3.4, 7.2, 3.6, 0.0, -6.32, -7.68, -9.2, -8.99, -6.44, -3.98, 0.0, 5.81, 9.67, 10.46, 8.51, 5.64, 3.53, 2.1, 1.58, 0.89, 0.97, 0.0, 0.0, 0.0, 0.0, 0.0, -1.11, -1.67, -1.67, -1.67, -8.15, -8.15, -8.15, -7.86, -7.86, -7.86, -7.59, -7.59, -7.3, -7.6, -7.6, -7.6, -7.6, -7.32, -7.32, -7.61, -7.61, -6.97, -6.97, -6.96, -6.96, -6.96, -6.96, -6.96, -6.96, -6.96, -6.96, -6.96, -6.56, -6.56, -6.31, -6.31, -6.31, -6.31, -5.89, -5.89, -5.89, -5.67, -5.23, -5.23, -5.23, -5.23, -5.2, -5.2, -5.2, -5.4, -4.9, -4.37, -4.43, -4.66, -4.73, -4.87, -4.66, -4.73, -5.26, -5.0, -5.0, -5.31, -5.03, -5.0, -5.06, -5.06, -4.74, -4.74, -2.83, 0.0, 0.0, 3.6, 6.01, 7.2, 0.0, -2.54, -6.32, -7.68, -7.27, -6.17, -1.76, 0.0, 1.89, 6.81, 11.56, 11.8, 9.1, 5.73, 3.58, 2.81, 2.1, 0.8, 0.0, 0.0, 0.0, 0.0, 0.0, 0.0, 0.0, 0.0, 0.0, 0.0, -8.15, -8.15, -8.15, -7.86, -7.59, -7.59, -7.59, -7.59, -7.3, -7.3, -7.3, -7.6, -7.6, -7.32, -7.32, -7.32, -7.26, -6.97, -6.97, -6.97, -6.7, -6.96, -6.96, -6.96, -6.96, -6.96, -6.96, -6.96, -6.56, -6.56, -6.31, -6.31, -6.31, -6.31, -6.31, -5.89, -5.89, -5.67, -5.67, -5.67, -5.67, -5.67, -5.89, -5.44, -5.2, -5.2, -5.4, -5.4, -5.14, -5.4, -5.47, -5.54, -5.09, -5.18, -5.28, -5.26, -5.38, -5.68, -5.03, -5.05, -4.71, -5.06, -5.06, -4.29, -3.0, 0.0, 0.0, 0.0, 0.0, 2.54, 0.0, -2.69, -2.83, -4.2, -2.39, 0.0, 1.52, 1.05, 2.81, 6.53, 10.47, 10.26, 7.45, 5.34, 4.75, 3.83, 2.13, 0.67, 0.0, 0.0, -1.39, -1.39, -1.39, -1.18, -1.02, 0.0, 0.0, 0.0, -7.81, -7.81, -7.81, -7.59, -7.59, -7.59, -7.59, -7.59, -7.59, -7.3, -7.3, -7.3, -7.6, -7.6, -7.32, -7.32, -6.98, -7.26, -6.97, -6.97, -6.97, -6.7, -6.7, -6.96, -6.96, -6.96, -6.96, -6.96, -6.56, -6.31, -6.31, -6.31, -6.31, -6.31, -6.31, -6.31, -6.31, -5.67, -5.67, -5.67, -5.67, -5.67, -5.89, -5.89, -5.44, -5.44, -5.4, -5.65, -5.65, -5.92, -5.7, -5.47, -5.54, -5.86, -5.78, -5.52, -5.59, -5.68, -5.69, -5.05, -5.37, -5.06, -5.09, -4.74, -3.47, -2.83, 0.0, 0.0, 0.0, -2.54, -4.71, -6.01, -2.83, 0.0, 0.0, 0.0, 0.0, 1.16, 4.32, 7.65, 8.21, 7.95, 6.72, 7.49, 6.87, 4.24, 1.48, 0.0, 0.0, -1.22, -1.62, -1.69, -2.95, -2.33, -1.92, -1.14, -1.14, -1.14, -7.81, -7.81, -7.55, -7.55, -7.27, -7.27, -7.59, -7.59, -7.59, -7.3, -7.3, -7.3, -7.3, -7.6, -7.32, -6.98, -6.98, -6.98, -6.97, -6.97, -6.97, -6.97, -6.7, -6.7, -6.96, -6.96, -6.96, -6.56, -6.31, -6.31, -6.31, -6.31, -6.31, -6.31, -6.31, -6.31, -6.31, -6.07, -5.67, -5.67, -5.67, -5.67, -5.89, -5.89, -5.89, -5.44, -5.65, -5.65, -5.65, -5.92, -5.98, -5.98, -6.29, -5.86, -5.95, -5.78, -5.86, -5.59, -6.01, -6.01, -5.37, -5.38, -5.43, -5.15, -4.11, -4.71, -2.69, 0.0, 0.0, 0.0, 0.0, -4.0, -2.97, -2.39, 0.0, 0.0, 0.0, 2.95, 5.92, 6.71, 6.45, 5.63, 7.8, 9.65, 8.0, 4.3, 1.43, 0.0, 0.0, 0.0, -1.62, -2.97, -4.2, -3.3, -3.65, -2.13, -2.13, -2.13, -7.55, -7.55, -7.55, -7.55, -7.27, -7.27, -7.27, -7.27, -7.59, -7.59, -7.3, -7.3, -7.3, -7.3, -7.27, -6.98, -6.98, -6.98, -6.98, -6.71, -6.97, -6.97, -6.97, -6.7, -6.31, -6.31, -6.31, -6.31, -6.31, -6.31, -6.31, -6.31, -6.31, -6.31, -6.31, -6.31, -6.31, -6.31, -6.07, -5.67, -5.67, -5.67, -5.89, -5.89, -5.89, -5.44, -5.65, -5.65, -5.92, -5.92, -5.98, -5.98, -6.29, -6.36, -5.95, -6.05, -5.78, -5.86, -5.94, -6.01, -6.06, -6.08, -5.43, -5.15, -5.21, -5.37, -3.6, 0.0, 0.0, 0.0, 0.0, 0.0, -3.11, -3.25, 0.0, 0.0, 0.0, 2.39, 4.6, 5.32, 5.0, 5.2, 8.05, 8.53, 5.65, 2.88, 0.0, -1.02, 0.0, 0.0, 0.0, -1.39, -4.2, -4.0, -4.0, -3.52, -3.52, -3.52, -7.55, -7.55, -7.55, -7.55, -7.55, -7.27, -7.27, -7.27, -7.27, -7.59, -7.3, -7.3, -7.3, -6.98, -6.98, -6.98, -6.98, -6.98, -6.98, -6.98, -6.71, -6.97, -6.97, -6.58, -6.31, -6.31, -6.31, -6.31, -6.31, -6.31, -6.31, -6.31, -6.31, -6.31, -6.31, -6.31, -6.31, -6.07, -6.07, -6.07, -5.67, -5.67, -6.16, -5.92, -6.16, -5.44, -5.7, -5.92, -5.92, -5.92, -6.21, -6.29, -6.29, -6.36, -6.44, -5.7, -6.05, -6.14, -6.24, -6.32, -6.39, -6.44, -6.18, -5.82, -5.58, -6.44, -4.22, -2.54, 0.0, 0.0, 0.0, 0.0, 0.0, -2.49, -3.25, 0.0, 0.0, 0.0, 2.39, 3.82, 4.23, 5.54, 6.16, 4.21, 2.39, 0.0, -0.73, -1.04, -1.62, 0.0, 0.93, 0.0, -1.94, -3.52, -4.96, -4.96, -4.96, -4.96, -7.55, -7.55, -7.55, -7.55, -7.55, -7.27, -7.27, -7.27, -7.27, -7.59, -7.59, -7.3, -6.98, -6.98, -6.98, -6.98, -6.7, -6.98, -6.98, -6.98, -6.71, -6.71, -6.33, -6.58, -6.58, -6.31, -6.31, -6.31, -6.31, -6.31, -6.31, -6.31, -6.31, -6.31, -6.31, -6.31, -6.33, -6.33, -6.33, -6.07, -6.07, -5.89, -6.16, -5.92, -5.92, -5.7, -5.7, -5.7, -5.7, -5.98, -5.98, -6.29, -6.29, -6.36, -6.44, -6.44, -6.51, -5.78, -5.86, -5.94, -6.32, -6.01, -5.77, -6.18, -5.58, -4.65, -5.69, -4.22, -4.46, 0.0, 0.0, 0.0, 0.0, -4.6, -5.7, -3.11, -2.97, 0.0, 0.0, 2.49, 2.1, 4.8, 4.58, 2.06, -1.41, -1.4, -0.72, -0.93, -1.54, -1.54, 0.0, 0.0, -0.85, -2.46, -4.6, -6.32, -6.32, -6.32, -7.55, -7.55, -7.55, -7.55, -7.55, -7.55, -7.27, -7.27, -7.27, -7.27, -7.59, -6.98, -6.98, -6.98, -6.98, -6.98, -6.98, -6.7, -6.98, -6.98, -6.98, -6.71, -6.33, -6.33, -6.58, -6.58, -6.31, -6.31, -6.31, -6.31, -6.31, -6.58, -6.58, -6.58, -6.33, -6.33, -6.33, -6.33, -6.33, -6.33, -6.33, -5.92, -5.92, -5.92, -5.92, -5.7, -5.7, -5.7, -5.98, -5.98, -5.98, -6.29, -6.29, -6.36, -6.44, -6.44, -6.51, -6.23, -5.86, -5.86, -5.94, -5.59, -5.69, -5.77, -5.59, -4.65, -6.01, -4.46, -3.6, -3.6, -6.01, -4.0, -2.97, -4.96, -7.27, -6.95, -5.21, 0.0, 0.0, 0.0, 0.0, 2.1, 3.07, -0.8, -1.39, -1.42, -0.69, 0.0, -1.11, -3.32, -2.28, -1.43, -1.54, -2.04, -2.97, -6.64, -6.64, -6.64, -7.55, -7.55, -7.55, -7.55, -7.55, -7.55, -7.27, -7.27, -7.27, -7.27, -6.97, -6.97, -6.98, -6.98, -6.98, -6.98, -6.98, -6.7, -6.7, -6.98, -6.98, -6.98, -6.33, -6.33, -6.33, -6.33, -6.58, -6.31, -6.31, -6.58, -6.58, -6.58, -6.33, -6.33, -6.33, -6.33, -6.33, -6.33, -6.33, -6.33, -5.92, -5.92, -5.92, -5.92, -5.92, -5.92, -5.7, -5.7, -5.98, -5.98, -5.75, -6.29, -6.36, -6.36, -6.44, -6.17, -6.17, -6.23, -5.94, -5.59, -5.94, -5.64, -5.3, -5.69, -5.06, -4.43, -3.49, -2.6, -2.69, -3.8, -6.32, -7.81, -6.64, -4.0, 0.0, -6.32, -4.2, -3.11, 0.0, 0.0, 0.0, 0.0, 1.13, 0.0, 0.0, 0.0, 0.0, 0.0, -0.93, -4.0, -4.2, -3.44, -3.11, -2.7, -2.97, -6.32, -6.32, -6.32, -7.23, -7.23, -7.23, -7.55, -7.55, -7.55, -7.55, -7.27, -7.27, -6.97, -6.97, -6.97, -6.97, -6.69, -6.69, -6.98, -6.98, -6.98, -6.7, -6.7, -6.98, -6.98, -6.61, -6.33, -6.33, -6.33, -6.33, -6.33, -6.58, -6.58, -6.33, -6.33, -6.33, -6.33, -6.33, -6.33, -6.33, -6.33, -5.92, -5.92, -5.92, -5.92, -5.92, -5.92, -5.92, -5.92, -5.48, -5.48, -5.75, -5.75, -6.04, -6.04, -6.36, -6.36, -6.44, -6.17, -6.17, -6.23, -5.94, -5.66, -5.59, -5.64, -5.64, -5.3, -4.95, -5.06, -3.91, -2.6, -3.8, -2.83, -5.21, -5.21, -3.11, 0.0, 4.4, 4.2, 0.0, -4.2, -5.7, -3.25, -3.25, 0.0, 0.0, 1.02, 1.59, 0.79, 0.0, 0.0, -2.7, -5.86, -5.63, -4.28, -3.61, -3.32, -4.0, -6.32, -6.32, -6.32, -7.51, -7.51, -7.23, -7.23, -7.23, -7.55, -7.55, -7.55, -6.97, -6.97, -6.97, -6.97, -6.97, -6.97, -6.69, -6.69, -6.98, -6.98, -6.98, -6.7, -6.7, -6.98, -6.98, -6.61, -6.33, -6.33, -6.33, -6.33, -6.33, -6.33, -6.33, -6.33, -6.33, -6.33, -6.33, -6.33, -6.33, -5.92, -5.92, -5.92, -5.92, -5.92, -5.92, -5.92, -5.92, -5.92, -5.48, -5.48, -5.75, -5.75, -6.04, -6.04, -6.11, -6.44, -6.44, -6.17, -6.17, -6.23, -6.23, -5.94, -5.98, -5.59, -5.64, -5.64, -5.3, -4.95, -4.74, -2.99, -3.22, -4.96, -2.97, -2.97, -3.11, 0.0, 3.11, 4.4, 0.0, -4.2, -6.95, -7.27, -7.27, -4.8, -1.71, 0.0, 0.0, 0.0, 0.0, 0.0, -1.39, -5.06, -6.64, -4.96, -4.0, -3.63, -4.0, -5.63, -5.63, -5.63, -7.51, -7.51, -7.51, -7.23, -7.23, -7.23, -7.23, -6.95, -7.27, -6.97, -6.97, -6.97, -6.97, -6.97, -6.97, -6.69, -6.69, -6.98, -6.98, -6.7, -6.7, -6.7, -6.98, -6.61, -6.61, -6.33, -6.33, -6.33, -6.33, -6.33, -6.33, -6.33, -6.33, -6.33, -6.33, -6.33, -6.33, -5.69, -5.69, -5.69, -5.69, -5.69, -5.69, -5.69, -5.69, -5.26, -5.26, -5.26, -5.75, -5.75, -5.8, -6.11, -6.11, -6.44, -6.17, -6.17, -6.17, -6.23, -6.23, -5.94, -5.94, -5.59, -5.59, -5.64, -6.01, -5.69, -5.06, -4.29, -4.29, -4.96, -5.21, -4.2, -4.2, 0.0, 0.0, 0.0, -4.4, -6.64, -8.8, -9.75, -8.55, -7.59, -3.98, -2.98, -1.16, 0.0, 0.0, 0.0, 0.0, -1.62, -6.64, -6.32, -4.74, -3.45, -4.44, -5.36, -5.36, -5.36, -7.51, -7.51, -7.51, -7.51, -7.23, -7.23, -6.95, -6.95, -6.95, -6.97, -6.97, -6.97, -6.97, -6.97, -6.97, -6.97, -6.69, -6.98, -6.98, -6.98, -6.7, -6.7, -6.7, -6.7, -6.61, -6.61, -6.61, -6.33, -6.33, -6.33, -6.33, -6.33, -6.33, -6.33, -6.33, -6.33, -5.69, -5.69, -5.69, -5.69, -5.69, -5.69, -5.95, -5.95, -5.52, -5.26, -5.26, -5.26, -5.52, -5.52, -5.8, -6.11, -6.11, -6.17, -6.17, -6.17, -6.17, -6.23, -6.23, -5.94, -5.94, -5.98, -5.98, -5.94, -5.64, -5.69, -5.69, -5.43, -5.43, -7.51, -7.51, -7.51, -8.0, -8.0, -8.0, -8.4, -6.64, -6.64, -8.4, -6.95, -5.7, -5.95, -3.98, -4.1, -3.84, -1.62, 0.0, 0.0, 0.0, 0.0, -1.47, -5.36, -5.59, -4.21, -4.21, -5.31, -5.31, -5.31, -7.51, -7.51, -7.51, -7.51, -7.51, -7.23, -6.95, -6.95, -6.95, -6.95, -6.97, -6.97, -6.97, -6.97, -6.97, -6.97, -6.69, -6.69, -6.98, -6.98, -6.98, -6.7, -6.7, -6.7, -6.34, -6.34, -6.34, -6.34, -6.34, -6.08, -6.08, -6.08, -6.08, -6.08, -5.69, -5.69, -5.69, -5.69, -5.69, -5.69, -5.95, -5.95, -5.95, -5.95, -5.29, -5.29, -5.29, -5.52, -5.52, -5.52, -5.8, -6.11, -5.85, -6.17, -6.17, -6.17, -6.23, -6.23, -6.23, -6.23, -5.94, -6.28, -5.98, -6.32, -6.01, -6.01, -6.06, -6.06, -6.06, -5.69, -6.11, -8.18, -8.48, -8.48, -8.48, -8.4, -4.2, 0.0, 0.0, 0.0, 0.0, -2.6, -3.98, -3.96, -3.75, -3.11, -0.79, 0.0, 0.0, 0.0, 0.0, -1.26, -2.83, -2.69, -3.6, -4.37, -4.37, -4.37, -7.51, -7.51, -7.51, -7.51, -7.51, -7.25, -6.95, -6.95, -6.95, -6.95, -6.95, -6.97, -6.97, -6.97, -6.97, -6.97, -6.97, -6.69, -6.69, -6.98, -6.98, -6.98, -6.98, -6.7, -6.34, -6.34, -6.34, -6.34, -6.34, -6.34, -6.34, -6.34, -5.95, -5.95, -5.95, -5.95, -5.95, -5.95, -5.95, -5.95, -5.7, -5.7, -5.7, -5.29, -5.29, -5.29, -5.29, -5.29, -4.84, -4.84, -5.32, -5.1, -5.85, -5.85, -6.17, -6.17, -6.23, -6.23, -6.23, -6.23, -5.94, -6.28, -6.28, -6.32, -6.32, -6.35, -6.35, -6.35, -6.06, -6.06, -6.79, -7.87, -7.44, -8.18, -6.01, -4.0, 0.0, 0.0, 0.0, 0.0, 0.0, -2.6, -4.8, -5.4, -5.0, -3.34, -1.67, 0.0, 0.0, 0.0, 0.0, 0.0, 0.0, 0.0, 0.0, 0.0, 0.0, 0.0, -7.17, -7.17, -7.17, -7.17, -7.25, -7.25, -6.95, -6.95, -6.95, -6.95, -6.95, -6.67, -6.97, -6.97, -6.97, -6.97, -6.97, -6.97, -6.69, -6.69, -6.69, -6.98, -6.63, -6.63, -6.63, -6.34, -6.34, -6.34, -6.34, -6.34, -5.95, -5.95, -5.95, -5.95, -5.95, -5.95, -5.95, -5.95, -5.7, -5.7, -5.7, -5.7, -5.29, -5.29, -5.29, -5.29, -5.29, -4.84, -4.84, -4.84, -5.1, -5.1, -5.39, -5.85, -6.17, -5.9, -5.9, -6.23, -6.23, -6.23, -6.23, -6.28, -6.28, -5.98, -6.32, -6.35, -6.35, -6.7, -6.35, -6.06, -6.06, -6.11, -5.84, -6.95, -3.8, -4.0, 0.0, 0.0, 0.0, -6.64, -6.64, -5.7, -5.52, -5.92, -5.67, -3.59, -2.16, 0.0, 0.0, 0.0, 0.0, 0.0, 1.22, 2.82, 3.61, 3.45, 3.45, 3.45, -7.17, -7.17, -7.17, -7.17, -7.25, -7.25, -6.95, -6.95, -6.95, -6.95, -6.95, -6.67, -6.97, -6.97, -6.97, -6.97, -6.97, -6.97, -6.69, -6.69, -6.69, -6.98, -6.63, -6.63, -6.63, -6.34, -6.34, -6.34, -6.34, -6.34, -5.95, -5.95, -5.95, -5.95, -5.95, -5.95, -5.95, -5.95, -5.7, -5.7, -5.7, -5.7, -5.29, -5.29, -5.29, -5.29, -5.29, -4.84, -4.84, -4.84, -5.1, -5.1, -5.39, -5.85, -6.17, -5.9, -5.9, -6.23, -6.23, -6.23, -6.23, -6.28, -6.28, -5.98, -6.32, -6.35, -6.35, -6.7, -6.35, -6.06, -6.06, -6.11, -5.84, -6.95, -3.8, -4.0, 0.0, 0.0, 0.0, -6.64, -6.64, -6.95, -6.7, -5.92, -5.18, -4.6, -3.42, -0.98, 0.0, 0.0, 0.0, 0.93, 2.19, 3.39, 3.08, 2.71, 2.71, 2.71]}]